GFSFLT1_925_spd_003.txt.gz
Wind_Speed
3 3 3 3 3 2 2 2 3 3 2 3 3 1 4 6 5 7 7 8 8 9 9 9 9 9 8 9 9 9 8 9 8
4 3 3 4 3 2 2 3 3 3 2 3 2 1 4 2 4 5 5 6 6 7 7 7 6 6 6 9 7 7 8 8 8
2 4 4 5 3 3 2 3 4 3 3 3 3 2 4 1 3 4 5 6 5 4 5 6 4 4 5 7 7 6 6 6 6
3 3 4 5 3 3 3 3 4 5 4 4 4 3 4 2 2 4 5 6 3 2 3 3 2 3 4 5 5 4 3 4 4
7 5 4 3 3 4 4 4 5 6 6 6 6 5 4 3 3 3 3 5 3 1 0 0 1 2 3 4 4 3 3 4 4
7 9 6 6 6 5 4 5 6 7 6 7 8 7 5 6 5 5 6 5 4 3 3 3 3 4 4 4 4 5 6 5 5
7 8 9 10 8 7 7 7 7 6 6 6 8 7 7 8 7 7 9 8 7 6 6 6 6 6 7 7 7 7 7 9 9
10 9 7 9 9 7 8 7 6 7 8 8 8 8 9 9 10 10 13 12 8 9 10 9 9 10 10 10 10 11 10 11 11
10 10 9 9 9 9 10 9 9 9 10 11 11 11 11 10 11 12 17 16 15 12 12 13 13 13 13 14 13 13 13 13 14
11 11 11 10 10 10 11 12 12 11 12 12 13 13 13 14 14 14 16 18 19 19 16 15 16 16 17 17 17 17 17 16 16
14 14 14 14 14 13 13 14 14 14 14 14 15 15 15 16 17 17 16 19 20 21 21 20 19 20 20 20 20 19 19 20 21
17 17 17 16 16 15 15 15 16 16 15 16 16 17 18 19 19 20 20 19 21 22 24 24 23 23 23 23 23 22 22 23 23
19 19 19 18 17 16 16 17 17 18 18 18 19 19 19 19 21 22 22 23 24 22 23 24 26 26 25 25 26 25 25 26 27
25 23 22 20 20 19 19 19 19 18 18 19 20 21 21 22 22 23 24 24 26 28 25 25 27 27 28 28 27 27 27 29 29
27 26 23 22 23 23 23 22 20 20 19 20 21 22 23 24 24 25 25 26 29 28 28 28 28 29 29 28 28 29 29 28 28
29 30 28 27 27 26 25 24 23 22 21 19 20 20 23 26 28 27 28 28 28 27 27 25 25 25 24 24 25 25 25 26 25
30 31 31 29 27 28 28 27 23 24 22 20 15 7 14 25 28 28 25 27 25 25 26 25 23 22 21 22 21 19 19 21 22
31 32 31 29 29 29 30 29 28 24 24 25 16 4 7 4 14 18 17 19 20 21 21 21 20 21 22 22 21 21 22 22 21
31 32 32 32 30 31 30 29 30 28 24 22 31 33 20 5 5 11 18 19 18 20 20 22 21 22 21 23 23 22 22 22 20
28 31 30 32 32 31 30 28 28 30 28 28 20 26 26 27 11 10 13 20 21 22 22 23 22 20 21 22 25 22 21 19 19

GFSFLT1_925_spd_006.txt.gz
Wind_Speed
3 2 2 1 2 1 2 2 3 3 2 4 3 4 7 5 8 8 5 7 8 8 9 9 10 10 9 9 8 8 7 8 9
2 1 2 3 1 1 1 2 3 2 3 3 3 4 5 5 6 5 6 9 6 7 7 7 7 7 7 7 6 6 7 8 7
2 2 3 4 3 2 2 3 5 3 3 4 4 4 5 4 5 4 3 8 5 4 5 6 5 5 5 5 4 4 4 6 5
5 4 5 6 5 4 5 5 6 7 6 6 6 5 7 5 6 6 5 6 4 3 4 4 4 4 2 3 2 2 1 2 3
8 7 6 6 6 6 6 6 7 8 9 9 9 8 9 7 5 5 8 7 6 5 4 3 3 3 3 1 1 2 2 1 2
10 10 11 9 9 8 7 7 9 11 10 10 10 10 10 6 7 10 12 10 9 8 7 6 5 5 4 4 4 4 5 5 6
12 13 13 13 12 10 9 9 10 10 9 8 10 11 10 7 11 13 13 12 11 10 10 8 8 7 7 7 7 8 8 8 8
15 14 13 13 14 13 10 11 11 10 8 12 11 8 10 11 13 14 16 16 14 12 13 12 11 11 10 10 10 11 11 10 11
14 14 17 11 9 10 15 10 9 9 14 15 14 15 15 16 16 16 19 20 18 16 15 15 15 14 14 14 13 14 14 14 14
17 16 15 15 14 15 13 15 15 17 15 15 18 18 19 19 18 19 21 20 21 22 20 19 18 18 18 17 18 17 17 17 17
18 18 19 17 16 15 16 18 18 19 19 19 21 22 23 24 23 23 24 24 24 24 24 23 23 23 22 21 21 21 21 21 21
21 21 20 21 20 20 19 19 20 21 22 23 23 23 24 24 25 27 28 27 27 27 27 26 26 26 26 25 25 24 25 25 26
26 25 26 24 24 23 23 23 24 25 25 25 24 24 25 26 27 27 29 29 31 32 32 31 29 28 29 28 28 28 28 28 28
31 30 30 27 27 27 27 27 26 26 26 27 27 27 28 29 30 32 32 31 31 33 35 34 34 33 31 30 30 30 31 31 30
33 34 33 29 30 31 30 30 27 29 28 26 24 27 31 32 32 32 31 33 34 35 34 35 37 36 35 33 32 32 32 33 31
34 37 34 32 33 34 33 32 31 31 27 24 26 27 28 29 32 33 34 36 36 34 34 37 39 38 34 32 33 31 30 29 30
33 36 35 33 31 32 33 32 27 27 27 20 13 6 15 30 35 38 38 39 38 39 38 37 37 36 33 33 29 29 27 27 26
31 32 32 31 32 31 31 32 31 24 25 30 16 3 6 2 20 30 34 34 34 31 31 32 34 35 33 31 30 30 28 26 25
33 35 34 35 33 33 32 33 35 30 26 21 33 34 22 6 4 15 25 26 28 30 28 29 29 30 30 30 30 30 29 29 27
31 33 34 36 34 35 33 32 33 33 31 30 23 26 30 31 13 11 11 25 28 29 29 30 31 32 33 33 33 31 32 31 28

GFSFLT1_925_spd_009.txt.gz
Wind_Speed
3 4 4 3 4 4 4 6 6 6 7 7 5 10 9 6 6 8 8 5 8 7 7 7 7 7 8 9 9 9 8 7 8
5 3 4 5 4 4 5 6 6 6 6 6 6 10 9 7 6 12 8 8 8 7 6 5 5 6 7 7 7 8 6 6 6
6 4 6 6 5 4 4 5 7 6 6 6 8 10 10 6 5 11 7 9 8 7 6 5 4 4 5 5 5 6 5 3 4
8 6 6 9 7 6 6 7 8 9 9 8 9 11 11 7 6 10 8 9 8 6 6 5 5 5 3 3 3 4 4 3 2
11 9 8 10 8 7 7 8 9 11 11 11 11 11 13 11 10 9 14 11 10 9 8 7 7 7 6 6 5 4 4 3 3
13 11 11 11 10 10 10 10 11 12 15 15 14 14 15 15 12 10 12 12 11 11 10 9 9 8 8 8 8 8 7 7 6
15 14 13 13 13 13 12 11 13 15 16 16 15 16 16 18 15 16 18 16 13 13 12 12 12 11 11 11 11 11 10 10 10
15 20 17 15 15 16 16 15 17 17 16 18 17 16 18 19 17 15 19 19 17 17 16 16 15 15 15 14 15 15 15 14 14
18 18 17 17 17 13 15 17 15 16 18 19 18 20 18 20 19 21 23 23 21 20 20 20 20 19 19 18 18 18 19 18 18
20 20 20 20 21 18 17 17 19 19 19 20 22 22 23 23 23 23 24 25 26 24 24 24 24 23 23 22 22 22 22 22 22
25 25 25 25 24 22 20 22 23 22 23 26 23 26 28 27 27 27 27 28 30 30 27 28 28 27 27 26 26 26 26 25 25
29 29 28 29 27 26 24 24 25 26 24 27 28 28 28 30 31 32 33 33 33 34 33 31 30 31 31 30 30 30 30 30 29
33 33 34 32 29 29 29 27 28 29 29 30 30 30 31 32 33 34 35 35 37 38 39 38 37 34 33 32 32 32 32 33 33
34 36 38 33 31 30 32 32 31 33 32 32 33 34 34 35 35 38 39 39 39 40 41 40 40 40 39 35 34 34 35 35 35
34 37 38 36 33 34 33 33 34 35 35 33 32 35 36 38 40 41 40 41 43 44 43 42 42 42 42 41 37 36 36 37 36
34 36 38 38 37 39 38 38 37 37 36 28 28 37 38 39 41 41 44 47 45 44 43 44 45 46 45 44 43 40 37 37 37
35 37 40 41 38 39 40 37 32 31 28 21 11 7 18 32 39 40 44 42 41 44 46 46 45 45 46 46 44 42 39 36 34
36 38 40 39 38 36 35 34 32 28 27 30 17 3 6 2 10 28 35 35 36 39 41 43 46 45 46 46 44 41 40 36 32
31 35 40 41 39 37 36 33 34 30 30 24 34 37 22 7 7 14 22 26 34 37 40 43 44 40 40 41 43 40 39 38 34
21 27 38 40 40 41 38 33 30 30 31 30 27 26 31 31 13 12 14 23 32 38 38 39 41 41 39 40 40 40 39 38 35

GFSFLT1_925_spd_012.txt.gz
Wind_Speed
5 6 7 6 5 5 6 6 6 7 7 7 6 8 7 3 3 13 9 5 6 6 5 6 6 6 6 5 5 5 6 6 6
7 5 6 5 6 6 6 8 8 8 9 9 9 11 9 7 6 12 9 6 7 7 7 6 5 5 5 4 4 4 5 5 5
9 6 7 8 7 7 7 8 10 9 9 11 11 13 12 9 7 13 11 8 9 9 8 7 6 5 5 5 5 4 4 4 4
9 7 7 11 10 9 8 9 11 12 12 13 13 15 15 12 9 15 14 12 12 12 11 10 10 8 7 7 7 6 6 5 5
12 11 12 12 12 11 11 12 13 14 15 14 15 16 17 16 12 17 16 15 14 14 13 12 12 11 10 9 9 9 9 9 9
14 15 14 14 14 14 15 14 14 16 18 18 18 18 19 19 18 17 18 19 17 17 17 16 15 14 14 13 13 13 13 13 12
18 18 16 15 16 17 17 17 17 17 20 20 20 21 20 22 23 21 20 20 20 20 20 19 18 17 17 16 16 16 16 16 16
20 21 21 22 21 21 19 19 20 20 21 21 22 23 23 23 25 25 23 25 24 23 23 22 21 20 20 20 20 20 20 20 19
23 24 24 26 24 23 21 20 21 22 22 22 23 25 25 24 26 29 27 26 27 27 26 26 25 24 24 23 23 23 23 23 23
23 25 25 26 24 23 23 21 22 23 22 23 26 27 27 28 28 29 29 30 32 30 29 28 28 28 27 27 27 27 27 27 26
28 28 28 29 27 26 26 26 25 25 25 26 26 28 29 30 32 32 33 33 34 35 33 32 32 31 31 31 31 32 31 30 30
32 33 33 32 29 28 29 30 28 28 28 32 30 31 34 34 34 36 38 38 38 38 37 36 35 35 35 35 35 35 35 35 34
32 33 35 34 31 30 31 32 33 33 32 33 35 35 35 37 38 39 40 41 42 43 44 43 42 40 39 38 38 37 37 36 37
32 34 36 36 35 34 34 35 34 34 36 37 38 38 39 40 41 42 42 43 44 45 46 45 46 47 46 42 41 39 38 38 38
33 35 36 37 38 38 37 36 36 37 32 29 31 33 38 43 45 46 46 46 48 48 49 49 50 49 48 48 44 42 41 40 40
34 35 37 38 39 41 40 38 36 35 33 29 28 31 39 44 44 40 43 46 47 49 50 50 50 51 51 50 49 48 45 43 43
31 34 37 40 40 40 38 36 30 28 26 17 14 7 19 29 35 38 41 43 38 39 42 47 47 50 50 52 52 51 50 45 43
28 33 38 40 39 37 36 34 33 28 28 29 15 4 6 3 15 21 27 30 33 37 38 41 45 47 49 50 51 52 51 48 42
15 17 22 31 35 36 38 35 35 29 26 25 30 35 27 8 10 20 19 23 28 32 34 38 40 41 43 45 45 46 47 45 41
22 22 20 20 21 29 35 33 29 30 29 27 26 25 26 31 13 12 13 26 32 34 36 39 40 39 41 45 47 48 49 48 42

GFSFLT1_925_spd_015.txt.gz
Wind_Speed
6 6 6 6 5 5 8 8 7 7 7 8 8 8 7 8 6 11 10 8 7 6 4 5 5 5 5 4 4 4 4 4 4
7 7 7 7 8 8 7 9 8 8 9 10 10 10 11 9 8 13 12 10 8 7 7 7 6 6 6 6 6 6 6 5 5
8 8 9 9 9 8 8 9 11 12 12 11 12 12 13 12 9 13 14 11 10 10 10 10 9 9 9 9 8 8 7 7 6
11 10 9 11 11 10 11 11 11 13 14 13 14 14 16 15 13 13 17 14 12 12 12 13 13 12 11 11 11 10 10 9 8
14 13 14 13 14 14 13 13 12 13 15 16 16 17 18 19 17 15 18 17 15 15 15 16 15 15 15 14 13 13 12 12 11
17 17 17 16 15 16 15 14 15 16 17 19 19 20 21 21 22 21 20 21 19 18 19 19 18 18 18 18 17 17 16 16 15
19 19 19 18 17 17 17 16 17 18 20 21 22 24 23 23 25 25 23 23 22 22 22 23 22 22 22 21 21 20 20 19 19
21 22 22 22 20 21 21 21 20 22 22 22 23 25 26 27 27 28 28 28 25 25 26 25 26 25 25 25 25 24 23 23 22
25 25 24 24 23 24 24 25 24 23 24 24 25 26 28 30 30 30 30 32 31 27 30 29 29 29 28 28 28 27 27 26 25
26 26 25 26 26 26 27 26 26 25 25 26 27 29 30 31 32 33 31 33 36 34 31 32 32 32 32 31 31 31 30 29 28
26 27 28 28 27 27 28 28 28 30 28 29 29 31 32 32 33 36 36 35 36 37 35 35 35 35 35 35 36 36 35 34 32
27 29 31 31 31 30 31 31 31 32 32 34 33 33 35 36 37 39 40 39 39 41 42 37 39 40 40 39 39 39 38 38 38
28 31 33 34 34 33 33 34 34 35 35 38 39 38 37 39 41 41 42 43 44 44 44 46 45 44 43 43 43 41 40 41 40
30 32 35 35 35 35 36 37 35 35 35 37 39 41 42 43 44 45 46 46 47 48 48 48 48 49 49 46 45 45 44 43 42
30 33 36 37 37 38 39 38 37 37 35 29 30 31 35 40 42 42 42 43 46 48 49 50 51 51 51 50 48 47 46 46 45
30 32 35 37 38 41 37 35 33 31 32 23 24 28 35 39 39 39 40 41 44 41 44 46 47 47 49 50 49 48 48 47 47
21 24 27 30 32 34 34 32 26 25 25 15 13 5 12 24 31 34 37 39 39 37 39 40 41 42 43 45 46 48 46 44 46
15 15 16 18 20 27 29 29 28 25 26 27 13 4 6 2 20 26 30 33 34 35 38 39 39 38 38 40 40 43 43 42 42
19 19 20 19 20 20 23 25 27 27 22 21 25 33 28 8 10 20 24 30 35 40 40 40 40 41 40 40 41 43 43 44 40
23 25 25 25 25 24 23 24 23 22 23 23 24 24 25 27 10 15 9 26 31 39 39 41 43 45 46 45 43 41 40 41 41

GFSFLT1_925_spd_018.txt.gz
Wind_Speed
5 6 5 6 6 6 6 7 4 7 8 6 7 6 7 10 9 8 10 10 7 7 7 7 7 5 6 5 5 6 6 6 7
6 6 6 7 7 8 8 9 10 9 10 9 10 10 9 13 11 9 11 11 8 8 8 7 7 6 6 7 7 8 8 8 7
7 8 7 8 9 9 9 10 11 11 12 12 12 12 13 15 13 11 14 14 11 11 11 11 9 8 9 10 10 9 9 9 9
9 10 10 9 10 11 11 11 12 12 13 14 13 14 15 17 17 15 14 17 16 14 14 14 14 13 13 12 13 13 12 12 12
14 13 13 11 12 13 13 13 13 13 14 15 15 16 18 20 20 20 18 17 20 17 17 17 16 16 16 16 15 16 16 15 15
15 15 15 15 15 13 14 15 15 16 17 18 19 19 21 22 22 23 22 21 21 20 20 20 20 19 19 19 19 19 19 19 18
17 16 16 17 17 16 15 16 18 18 20 21 21 22 24 26 25 25 26 26 23 22 23 24 24 23 22 23 23 22 22 22 21
19 19 18 18 19 20 20 21 21 22 23 23 24 24 25 27 28 28 28 28 27 26 26 26 26 26 26 26 26 26 26 26 25
20 21 20 20 20 22 22 24 25 25 25 25 25 26 27 28 29 31 31 32 32 29 29 28 29 30 30 30 29 30 30 29 29
21 22 22 22 21 23 24 25 26 27 27 27 27 28 28 29 30 32 33 33 34 33 31 33 32 33 35 34 34 34 34 33 33
22 23 24 24 24 25 27 28 28 30 30 31 31 32 32 32 33 33 34 34 35 37 35 34 36 37 37 38 38 39 39 39 38
23 25 26 27 27 28 29 31 32 33 35 36 36 36 36 37 37 37 37 39 39 39 40 38 37 39 40 40 41 41 40 41 40
25 27 29 30 30 30 30 32 34 36 37 39 40 40 39 40 40 41 42 43 44 45 43 43 43 42 42 43 44 44 44 43 42
25 28 31 32 32 33 33 35 33 31 31 34 38 37 39 40 40 41 42 43 44 47 47 47 47 47 48 44 45 47 46 45 45
24 25 27 28 30 31 31 31 30 31 32 29 28 31 34 37 39 40 40 42 43 44 44 46 46 48 48 48 46 47 47 48 48
12 14 16 17 20 23 25 25 26 26 24 21 21 26 27 32 35 36 38 39 40 40 40 41 42 43 43 44 43 43 45 47 47
15 15 16 16 17 19 20 22 22 20 21 12 17 5 11 23 29 33 37 39 39 38 41 42 43 41 39 41 40 37 38 40 42
18 18 18 18 18 19 20 19 19 19 21 20 12 5 8 10 22 26 30 35 37 39 40 42 44 44 44 44 43 42 38 37 38
21 21 22 21 22 23 23 23 21 20 18 20 18 24 24 11 13 20 25 30 37 38 38 39 42 45 46 48 49 47 46 43 42
23 24 24 25 25 25 25 25 26 23 20 17 20 21 21 21 9 14 9 23 23 29 35 35 36 40 44 46 48 49 49 48 48

GFSFLT1_925_spd_021.txt.gz
Wind_Speed
4 3 3 3 4 5 5 6 6 4 6 8 7 6 7 10 10 9 9 11 10 8 9 10 10 10 9 8 6 6 6 5 6
4 4 4 4 5 6 6 6 8 9 9 10 10 11 10 10 11 12 10 11 11 10 11 11 10 10 9 9 8 7 7 8 9
6 6 5 5 6 7 7 7 8 9 11 11 12 12 12 12 13 15 13 14 14 13 13 13 12 11 11 11 10 10 10 10 10
6 6 7 7 7 9 9 9 9 10 11 12 13 14 14 15 14 16 16 14 17 16 15 15 15 15 14 14 13 13 13 13 13
12 12 11 10 9 10 10 11 12 12 13 13 14 16 16 16 16 16 19 18 17 18 19 18 18 18 18 18 17 17 17 16 16
13 12 12 13 13 12 12 12 13 14 16 17 17 18 15 16 17 17 21 22 21 19 20 22 21 21 21 21 21 20 20 20 20
15 14 13 13 14 15 15 15 15 15 14 16 18 16 18 18 18 20 24 24 23 23 23 24 25 24 24 24 24 24 23 23 23
17 16 15 15 14 16 16 17 18 18 18 19 20 21 20 21 22 25 25 26 26 26 27 27 27 27 28 28 28 27 27 27 27
17 17 16 17 17 18 18 19 20 21 22 23 23 23 24 24 25 27 26 27 28 29 29 30 31 31 31 32 33 32 33 32 31
17 18 18 18 19 20 21 22 24 25 24 25 26 27 28 28 29 30 31 29 30 31 31 32 33 34 34 35 36 36 37 37 36
19 19 20 21 21 22 24 24 24 25 24 26 25 29 30 32 32 33 35 36 34 34 34 32 34 35 36 38 39 39 40 41 40
20 21 23 24 24 25 25 26 26 26 25 26 27 27 29 30 33 33 35 36 38 38 38 37 36 37 38 39 41 43 43 42 42
19 21 23 24 25 24 24 25 27 29 28 29 31 31 32 33 31 31 31 34 37 39 39 39 41 41 40 41 42 44 46 46 47
17 19 21 21 22 21 21 22 18 19 20 20 23 24 26 27 27 29 30 33 37 39 38 42 41 41 42 42 45 47 48 49 50
10 12 14 14 15 14 14 16 16 18 20 22 23 24 25 25 26 28 28 29 32 34 35 37 36 39 39 40 41 45 48 49 51
15 13 13 14 13 13 14 14 16 18 17 17 18 21 24 26 23 25 25 25 30 30 30 33 34 33 40 42 41 39 41 45 50
17 17 17 17 17 17 17 16 16 15 17 13 20 6 15 22 17 23 25 30 30 28 29 31 31 32 33 35 43 44 41 40 40
18 18 18 18 17 16 17 15 14 13 15 14 10 7 8 12 23 25 27 27 25 28 28 28 29 30 32 35 39 43 45 45 42
20 19 19 19 17 17 16 16 15 15 16 18 11 19 20 8 12 15 23 27 24 26 29 28 28 28 31 33 38 42 45 46 40
21 21 21 20 18 18 19 20 20 16 16 15 18 19 19 18 10 16 11 27 25 25 28 30 28 27 28 30 33 37 42 40 41

GFSFLT1_925_spd_027.txt.gz
Wind_Speed
0 0 3 3 4 4 4 4 5 6 7 6 7 9 9 10 10 10 10 10 11 8 9 9 11 11 12 12 12 12 11 10 9
2 4 5 5 4 5 5 5 5 7 7 8 9 10 13 13 13 14 12 12 11 12 13 13 13 14 13 13 13 13 11 11 11
4 5 7 5 4 6 7 7 8 8 7 8 9 10 12 13 14 15 14 15 14 14 15 15 16 16 14 14 14 14 14 13 13
6 6 6 6 7 8 7 8 9 11 11 10 12 13 14 15 16 16 17 16 17 17 17 18 19 18 18 17 17 17 16 16 16
10 10 10 11 11 10 10 10 12 11 12 13 15 16 18 16 17 18 19 19 17 18 19 19 21 21 22 21 21 20 20 20 20
7 8 13 13 12 11 12 12 12 13 15 15 15 15 14 15 16 17 18 19 19 21 22 23 23 23 24 26 23 24 23 23 23
7 9 12 12 12 13 13 13 13 15 13 14 10 12 12 14 16 18 19 21 21 22 24 25 26 27 27 27 28 26 27 26 27
5 6 6 7 9 8 9 10 11 10 12 13 14 15 17 17 18 19 22 25 24 24 26 27 28 29 30 30 30 31 31 31 32
5 6 6 7 6 8 9 10 10 13 14 16 17 18 20 20 21 22 24 27 28 26 27 28 29 30 32 32 33 35 35 36 35
5 6 7 8 8 9 11 12 13 14 16 17 18 20 22 23 24 25 26 28 31 32 30 30 31 32 33 34 36 37 38 39 39
6 7 8 8 9 10 12 14 16 17 17 19 20 22 24 24 25 25 26 29 31 34 34 31 32 33 35 36 37 39 41 42 43
7 8 8 9 10 12 13 14 15 17 18 20 22 21 22 23 25 26 26 27 28 31 31 30 30 32 34 36 38 40 41 43 44
6 7 8 9 11 11 12 13 15 16 17 19 19 20 22 24 25 25 25 24 25 25 27 28 29 29 31 33 36 39 41 43 45
4 5 7 8 8 9 11 13 14 17 18 19 20 21 22 23 24 25 26 25 24 23 24 26 28 30 31 30 31 34 36 40 41
9 8 9 10 9 10 13 14 15 17 18 21 22 23 24 25 25 23 21 21 20 24 28 29 28 32 30 31 31 31 31 33 37
12 10 10 11 11 12 13 15 17 18 18 19 20 20 28 20 18 22 29 29 27 26 29 30 26 29 31 29 28 29 31 33 34
12 12 12 13 13 14 15 16 16 15 18 18 19 6 14 12 31 36 24 29 27 23 28 28 27 29 32 31 31 35 34 37 38
14 14 13 13 13 14 15 15 16 16 17 17 11 6 6 12 19 22 23 24 32 28 27 34 33 31 31 34 32 29 30 31 34
14 13 13 12 12 12 13 14 15 15 15 17 16 18 20 11 11 12 25 25 24 31 28 29 32 31 29 32 35 29 29 32 32
13 12 12 12 11 12 13 14 15 14 16 16 18 19 19 21 11 13 9 25 23 28 28 26 28 34 40 33 32 32 40 36 32

GFSFLT1_925_spd_030.txt.gz
Wind_Speed
2 2 4 4 3 3 3 3 3 3 6 6 6 7 8 10 8 12 11 11 10 10 8 9 8 10 10 11 11 11 11 10 10
1 1 4 6 4 3 2 2 3 4 5 6 8 9 11 13 14 13 10 11 12 12 12 12 12 12 13 13 13 13 13 11 11
2 2 5 4 3 3 4 6 8 9 9 8 9 10 11 13 14 13 15 15 14 15 14 14 15 16 15 15 15 14 14 14 13
6 6 6 6 6 6 6 7 9 9 10 12 13 14 15 15 16 16 15 15 16 17 17 18 18 18 19 18 18 17 17 17 16
7 9 7 8 8 9 8 9 10 11 11 13 15 15 16 18 16 13 14 13 16 17 18 19 19 20 22 22 21 21 21 20 20
8 7 8 11 11 10 10 10 11 11 14 15 13 16 17 16 13 18 18 17 18 20 21 22 22 23 24 24 25 25 24 24 23
7 5 10 9 9 8 10 9 9 11 11 10 15 14 16 16 16 16 19 21 21 21 22 23 24 25 26 27 27 28 29 26 28
6 5 6 7 8 10 9 10 12 14 13 14 17 19 19 20 22 22 22 23 24 23 23 25 26 27 28 29 30 30 31 31 32
5 6 6 9 8 9 10 12 12 15 17 19 20 21 21 23 24 25 25 25 27 26 26 26 27 28 30 30 32 33 34 35 35
4 3 6 7 9 10 12 12 14 16 18 19 21 20 22 23 25 26 26 28 28 29 29 29 28 28 30 32 34 35 36 37 38
3 5 8 7 9 11 11 14 16 17 17 17 20 22 24 23 23 25 27 28 28 28 27 27 29 30 29 30 33 36 37 39 40
4 6 8 8 9 11 12 13 15 16 17 18 19 20 20 23 25 26 26 26 28 27 27 27 26 26 28 30 31 34 34 36 39
3 5 5 8 9 11 10 15 17 18 19 22 22 22 21 23 25 25 25 26 29 28 28 27 28 27 27 28 30 31 32 33 35
9 10 8 11 12 13 14 15 16 19 21 21 21 25 26 26 28 27 23 16 20 27 24 22 24 27 30 32 32 31 31 32 33
14 13 12 11 13 13 13 15 17 17 20 24 21 25 28 26 22 17 25 32 27 27 30 27 24 22 24 23 23 26 28 30 32
13 12 11 12 13 13 14 16 18 20 22 19 22 25 14 20 18 31 30 29 32 25 25 30 26 33 35 35 31 30 29 30 32
14 13 13 13 12 13 15 16 17 15 19 15 16 4 13 8 34 26 22 30 22 33 33 26 33 34 34 35 38 36 29 29 30
14 14 13 13 12 13 14 16 17 17 19 18 8 4 3 14 8 25 21 26 35 24 33 38 33 34 33 28 30 39 36 31 31
14 13 12 11 11 12 14 14 15 15 16 20 10 18 20 5 8 4 30 24 28 34 28 33 28 24 34 39 43 32 36 36 37
13 11 11 11 12 13 13 14 15 14 14 14 18 22 21 20 6 13 10 26 24 27 32 23 38 37 29 32 34 33 31 33 34

GFSFLT1_925_spd_033.txt.gz
Wind_Speed
4 3 3 4 2 2 1 0 3 4 5 6 6 7 7 10 11 10 11 9 11 9 11 9 10 10 11 11 12 12 12 12 11
3 2 2 3 2 1 0 1 1 2 4 4 6 7 10 12 14 14 14 12 10 12 12 12 12 13 13 14 14 14 14 13 12
4 4 5 4 3 3 3 5 6 6 9 9 9 9 10 11 14 15 14 14 13 13 15 15 15 15 16 16 16 15 15 14 14
5 6 6 6 5 6 6 7 7 8 9 9 12 13 14 15 17 18 16 14 14 14 17 17 17 18 19 18 19 19 17 17 17
7 6 5 5 6 8 8 8 8 9 10 11 12 13 15 16 18 16 13 13 14 15 16 16 18 19 20 20 21 22 21 21 20
7 7 6 6 8 10 9 9 8 9 10 11 10 12 16 17 18 17 15 15 16 17 18 20 20 21 22 23 23 24 24 25 25
8 6 5 7 6 7 8 7 8 10 11 11 11 14 17 17 19 20 19 19 18 20 22 23 24 22 23 24 25 26 26 27 29
3 4 4 5 7 8 8 10 11 13 14 16 18 19 21 22 22 22 21 21 22 22 24 25 27 26 24 25 26 27 28 30 31
4 5 6 6 8 9 10 12 12 14 16 17 17 19 15 18 20 21 22 23 24 25 27 27 28 28 27 26 27 30 32 33 33
2 2 2 6 7 8 10 10 11 13 14 14 16 19 19 20 22 19 19 21 22 24 24 25 26 27 28 29 30 29 29 32 35
1 1 3 5 6 6 7 7 8 10 11 13 14 16 17 17 18 20 22 23 24 24 23 24 24 25 26 28 28 28 29 29 31
1 2 3 5 5 5 6 8 11 13 15 16 16 17 18 20 23 23 22 22 21 21 20 18 19 21 24 26 26 27 28 31 32
7 6 6 10 7 8 10 12 13 15 16 17 18 20 22 23 22 20 15 16 21 20 21 23 22 18 17 17 19 22 26 30 33
10 9 8 7 6 9 12 13 15 17 19 21 20 21 22 19 15 12 20 22 22 25 21 21 23 21 23 23 23 23 25 27 28
8 10 9 8 9 12 13 13 15 14 19 20 18 21 13 14 13 21 27 20 28 22 25 30 28 29 27 25 25 27 29 30 31
10 10 10 9 11 12 13 15 17 17 23 12 21 12 7 17 20 35 18 28 23 26 31 26 31 37 36 35 30 27 28 29 31
12 11 11 10 10 11 13 15 14 9 18 12 8 4 8 7 38 14 29 18 26 31 25 34 33 33 33 26 27 30 33 35 32
12 12 11 11 11 13 13 14 15 14 15 20 5 4 3 13 8 29 14 25 27 25 34 30 30 30 26 37 33 30 32 30 30
11 11 11 11 12 12 13 13 15 15 16 17 8 12 13 3 6 5 31 17 28 28 28 27 29 27 36 29 38 27 29 35 36
10 10 10 11 12 12 13 14 17 14 13 15 17 22 20 15 5 10 8 26 25 28 29 32 30 35 26 34 28 35 39 34 34

GFSFLT1_925_spd_036.txt.gz
Wind_Speed
6 5 3 2 1 1 0 1 3 5 5 6 6 7 9 12 12 12 10 11 10 10 11 12 12 11 11 12 12 13 13 13 13
7 4 1 1 1 1 1 1 3 3 4 5 6 7 8 11 12 12 12 13 12 11 12 13 13 12 12 14 15 15 15 15 14
8 6 3 2 1 1 2 4 5 5 7 8 10 10 10 11 13 14 14 13 13 13 13 14 15 15 15 16 17 17 16 16 16
7 5 4 3 3 4 5 6 6 7 8 8 10 11 12 14 15 15 14 11 8 12 14 15 16 16 17 18 19 19 19 19 18
7 5 5 4 5 6 7 7 7 8 9 10 11 11 12 14 16 16 14 13 12 13 14 15 16 16 17 18 19 20 22 22 22
8 7 5 5 5 5 5 6 6 6 7 8 9 11 13 15 16 17 16 17 17 17 18 18 18 19 20 20 21 22 22 23 24
6 8 7 4 3 4 4 4 6 7 9 10 11 14 16 19 20 21 21 21 20 19 20 22 23 24 24 24 22 22 24 24 25
6 4 4 4 5 5 6 7 8 10 12 13 14 15 16 14 16 17 16 18 20 22 22 24 24 24 26 25 24 24 25 25 28
7 6 6 7 7 7 8 9 10 10 11 12 11 11 12 12 13 13 14 14 15 16 17 19 21 22 23 24 27 28 28 26 27
5 3 1 2 4 6 6 5 5 7 7 8 10 12 12 12 13 15 15 15 15 15 15 16 17 20 20 21 22 24 25 26 26
4 2 2 3 3 4 5 6 6 8 10 12 13 15 16 17 17 18 18 17 14 14 14 14 16 16 16 17 19 20 20 20 22
5 4 5 6 5 6 6 8 9 11 13 14 15 17 18 18 18 15 11 13 12 13 15 15 17 15 16 16 18 20 20 19 19
5 5 6 4 5 6 8 10 12 13 15 18 18 18 19 16 9 8 15 14 16 18 15 17 16 17 19 19 19 19 20 22 22
7 6 6 4 5 7 9 11 13 14 18 20 17 21 16 7 6 12 20 14 21 18 19 19 21 23 22 21 22 22 22 21 22
7 8 6 6 7 10 11 12 13 10 20 17 20 18 11 5 7 25 16 22 21 21 22 25 29 29 24 25 21 21 22 23 24
9 9 8 9 11 12 13 14 16 12 22 11 22 10 4 11 12 18 18 23 18 26 23 29 29 29 30 23 23 25 24 25 28
10 10 10 10 10 11 13 15 14 8 16 9 5 4 7 6 36 9 24 15 29 20 32 28 29 25 29 28 27 27 29 29 27
11 10 10 10 11 12 12 13 15 12 10 12 7 4 3 10 4 22 10 33 18 34 29 31 29 25 28 28 34 26 28 26 30
9 9 9 9 10 10 12 12 15 14 14 12 8 6 11 3 5 7 29 15 29 25 26 27 25 33 22 32 27 28 26 34 35
9 8 8 9 10 10 11 13 14 13 13 13 13 12 15 11 5 10 10 25 26 27 26 27 30 26 31 27 26 30 33 31 29

GFSFLT1_925_spd_039.txt.gz
Wind_Speed
5 5 3 2 2 2 2 2 4 5 6 6 6 6 7 10 12 12 11 11 11 9 9 12 13 11 12 13 13 13 13 13 14
7 5 1 1 2 2 2 1 2 2 4 6 6 6 7 8 10 11 11 11 11 11 11 11 13 13 13 13 14 15 16 15 15
8 5 3 2 1 1 1 2 3 5 5 5 7 10 10 10 12 13 13 11 11 12 13 13 14 14 15 15 16 17 17 18 17
9 6 5 3 3 3 3 4 5 6 7 7 8 8 10 11 12 13 13 12 11 11 12 14 15 14 16 16 17 18 19 19 19
6 6 5 4 4 4 5 6 6 6 7 8 8 9 10 11 13 14 14 14 14 14 14 15 16 16 16 17 18 18 19 20 21
8 8 5 4 5 5 5 5 5 6 8 9 11 12 14 16 17 18 17 17 17 17 18 18 18 19 20 22 23 20 21 21 22
8 8 7 6 5 5 5 6 7 8 9 11 12 13 15 15 15 15 16 15 16 17 18 21 20 22 23 25 25 24 23 23 23
7 7 4 4 5 6 7 8 8 9 10 11 11 10 10 11 10 10 11 12 12 12 13 14 15 15 17 20 23 27 27 26 27
7 4 3 4 6 7 8 8 6 5 8 7 7 8 8 10 10 11 11 12 12 12 13 14 14 15 15 16 17 19 20 23 25
5 3 1 0 1 1 2 4 5 6 9 10 11 11 12 13 13 14 12 12 11 11 12 12 13 14 14 14 14 14 14 15 14
7 6 6 5 4 1 4 7 8 9 11 12 13 13 14 15 14 10 9 8 8 10 12 14 14 14 15 15 16 16 14 14 15
7 6 7 5 3 4 5 7 8 10 12 14 15 15 15 16 9 7 10 8 11 12 14 14 15 16 17 17 16 18 18 18 18
5 5 5 4 4 6 8 9 11 13 16 18 18 16 19 10 3 9 12 11 13 14 13 13 16 19 18 19 20 19 18 17 17
7 6 5 5 5 7 10 11 13 15 19 21 18 20 13 3 3 12 10 11 14 16 15 17 22 21 19 20 18 17 18 20 21
8 8 7 7 7 9 12 11 12 11 20 19 20 16 8 4 4 17 12 12 16 17 19 25 25 24 19 20 19 18 20 20 22
10 9 8 9 11 12 13 12 14 14 22 12 22 10 5 9 6 25 15 18 18 25 18 29 28 27 23 22 20 21 23 24 24
10 9 10 10 10 10 13 15 14 11 18 10 4 4 8 4 14 19 18 14 28 19 34 29 28 24 24 31 19 24 21 24 24
9 9 9 9 10 11 12 14 15 11 12 10 8 4 3 8 5 12 10 24 16 32 31 30 25 21 30 23 24 23 25 23 27
9 8 8 9 9 10 11 12 13 12 10 8 8 5 10 3 5 4 25 12 28 27 29 26 24 31 28 21 26 24 26 30 30
8 7 8 8 9 10 10 11 12 12 10 10 9 9 13 9 4 10 11 27 27 28 25 28 30 28 26 27 25 26 30 29 29

GFSFLT1_925_spd_042.txt.gz
Wind_Speed
5 4 3 2 2 3 3 3 4 4 4 4 3 3 4 6 7 7 6 7 8 9 9 8 10 11 11 10 12 13 13 13 14
4 5 2 2 2 3 2 2 1 1 3 5 6 6 6 7 8 8 8 8 8 9 10 10 10 11 12 13 12 13 14 15 16
6 4 1 0 0 1 1 1 2 3 4 5 5 8 9 10 11 11 11 10 10 10 10 12 12 12 13 13 14 15 16 17 16
6 5 4 3 2 2 3 4 5 5 6 6 7 8 9 10 12 13 14 14 13 12 12 11 12 14 13 15 16 16 17 17 18
6 5 4 3 3 4 5 5 5 5 5 6 7 9 10 11 13 15 16 16 15 15 15 14 15 15 15 18 18 17 17 18 18
7 6 4 3 4 4 4 4 5 5 6 7 9 11 11 12 12 10 10 10 11 13 17 16 17 18 19 19 20 22 21 20 20
8 7 6 5 4 4 4 4 6 6 7 8 9 10 10 10 10 10 10 10 10 10 12 12 12 13 13 16 19 21 24 23 24
6 5 5 4 3 4 5 5 5 5 6 8 7 7 7 8 8 9 10 10 10 10 11 11 11 12 13 14 15 14 15 19 22
5 4 3 3 3 4 4 3 3 3 5 8 8 8 10 11 11 10 10 10 9 9 9 10 11 12 12 12 12 13 12 12 12
4 4 1 1 1 1 1 1 3 6 7 8 10 10 11 11 11 9 8 7 7 10 10 12 12 13 13 13 13 13 12 12 12
4 4 4 4 4 1 1 3 4 7 8 9 10 10 10 12 7 5 4 5 6 9 12 13 13 14 14 13 14 14 14 14 14
9 8 7 4 3 2 3 5 6 7 10 12 11 11 13 9 3 4 5 6 7 8 11 14 15 16 16 16 17 16 15 14 13
13 11 8 4 2 4 5 8 10 12 14 16 13 14 14 3 2 5 6 7 10 11 12 15 17 19 18 18 18 17 17 17 17
13 10 8 5 5 6 9 10 12 15 18 18 15 17 8 3 5 8 8 8 12 14 15 19 23 22 19 18 19 20 18 19 19
12 10 9 6 6 9 10 10 12 14 19 14 17 8 5 5 1 7 12 9 14 16 21 25 28 26 21 18 20 22 19 21 22
12 12 10 8 9 11 12 11 12 16 22 12 16 8 6 5 6 14 17 11 17 21 23 32 29 29 22 21 26 21 21 24 22
13 11 10 10 9 10 13 14 11 11 19 11 4 4 6 6 20 20 9 18 17 29 34 31 30 24 26 29 24 21 24 23 24
12 11 10 10 10 12 13 13 13 12 13 11 7 3 2 7 5 13 14 11 24 31 33 31 25 30 29 25 25 21 24 25 26
12 11 10 10 10 11 11 11 12 10 10 4 8 3 5 3 5 5 19 8 29 26 29 24 32 27 29 25 24 26 25 27 30
13 11 11 10 10 10 9 10 11 10 7 7 5 4 8 5 3 8 10 26 24 26 24 33 25 29 27 29 28 23 29 30 31

GFSFLT1_925_spd_045.txt.gz
Wind_Speed
4 4 4 4 3 3 1 1 2 2 3 4 4 4 4 5 6 6 6 7 7 8 10 9 8 9 11 11 10 12 12 12 12
4 3 4 4 4 5 4 4 3 2 4 5 5 6 6 6 6 7 7 8 7 8 9 10 10 12 12 13 15 12 14 14 14
3 2 2 3 4 4 3 3 3 3 3 4 2 5 5 6 7 8 8 8 9 9 9 9 11 13 14 13 14 14 15 16 16
4 1 1 1 2 3 3 3 3 3 3 4 4 5 5 6 8 9 10 9 8 9 11 12 12 13 15 15 15 17 16 15 16
4 5 3 0 1 2 3 3 2 2 3 4 5 6 6 7 9 9 9 8 8 10 12 13 14 16 16 17 17 18 17 18 18
7 4 2 1 1 2 1 2 2 2 3 4 6 7 7 7 8 8 8 8 9 10 9 10 10 10 11 12 17 19 20 21 23
6 5 4 3 3 2 2 3 3 3 3 4 5 5 5 6 6 7 8 8 9 9 9 9 9 10 11 11 11 11 12 16 21
6 3 2 2 3 3 3 3 3 2 3 4 5 5 6 7 8 9 9 8 7 8 8 8 10 10 11 11 11 12 11 11 9
4 2 2 2 3 3 2 1 1 1 4 7 7 7 7 8 8 8 7 6 7 7 8 9 10 11 11 12 11 11 11 10 10
4 4 3 3 3 3 2 1 2 3 5 7 8 8 7 8 7 5 5 4 6 9 10 11 12 13 12 11 12 13 13 13 13
6 7 6 5 4 1 0 1 3 6 7 8 8 8 8 7 4 2 2 3 7 12 12 13 13 14 14 13 14 14 13 13 12
12 11 9 7 5 1 1 3 4 6 8 9 8 8 9 5 2 1 3 5 5 9 13 14 15 16 16 16 15 15 15 16 15
16 14 11 8 5 3 2 4 6 9 12 12 10 10 9 2 3 4 4 5 6 8 11 15 18 17 17 16 15 16 18 17 17
16 14 11 8 7 5 5 7 9 13 15 13 10 12 1 5 7 6 5 6 8 10 13 18 22 22 19 17 16 18 20 18 18
17 13 12 10 8 8 7 8 10 13 15 10 12 4 1 8 4 3 9 7 8 12 18 23 24 26 20 17 18 21 21 19 21
15 15 13 11 8 9 8 7 8 13 18 10 8 3 2 5 7 8 9 5 12 15 21 28 25 20 23 21 21 21 22 20 23
16 16 13 10 9 9 9 9 7 9 16 7 2 4 2 2 5 9 5 12 11 22 29 26 21 21 20 20 22 21 22 22 25
16 13 12 11 9 10 10 11 10 7 9 12 5 2 2 7 6 5 8 9 17 23 20 18 21 19 19 20 20 21 24 25 25
16 12 12 11 10 10 10 9 10 7 6 4 6 2 2 3 5 4 10 5 21 18 16 21 18 19 18 20 22 23 23 25 29
15 13 12 11 10 10 8 8 8 7 5 3 3 2 4 3 4 8 11 22 18 19 18 20 18 19 20 20 20 24 28 29 30

GFSFLT1_925_spd_048.txt.gz
Wind_Speed
7 6 5 5 5 5 3 2 1 2 4 5 5 5 5 5 5 5 5 5 6 6 8 9 9 9 10 11 12 11 11 12 12
7 6 7 7 7 7 6 5 4 3 4 4 5 5 6 4 4 5 5 6 8 8 8 9 10 11 12 13 13 15 14 13 13
6 5 5 6 6 6 4 3 3 2 2 2 2 4 5 5 5 6 6 8 9 9 10 11 12 13 14 15 14 15 14 15 16
5 3 3 3 3 3 2 2 2 2 1 1 2 4 5 5 5 7 6 10 10 10 12 14 14 15 15 15 16 16 17 16 16
5 2 2 2 1 1 1 1 2 1 2 3 3 5 6 5 6 6 5 7 9 10 10 10 11 12 11 12 17 19 18 18 18
5 5 4 3 2 1 1 1 1 1 3 4 5 5 4 4 4 4 7 7 8 8 9 9 9 10 11 11 10 11 10 14 19
7 5 4 4 4 2 1 1 1 2 1 2 5 3 4 4 5 5 7 7 8 8 8 8 10 10 10 11 11 11 11 11 11
6 5 3 3 4 2 1 1 1 2 2 2 3 4 5 5 5 7 7 6 6 6 6 8 9 10 11 11 11 12 12 12 11
6 5 4 4 3 2 1 1 2 2 2 3 4 5 5 6 5 6 5 4 6 6 7 9 10 11 11 10 12 13 13 13 13
7 5 4 4 3 3 3 2 1 2 3 4 4 5 5 5 3 2 3 3 8 8 8 9 10 11 11 12 13 13 12 12 12
8 8 8 8 7 6 3 2 1 3 4 5 6 5 5 4 2 2 1 3 9 9 9 10 11 12 13 13 13 14 13 15 15
11 13 11 7 7 4 2 1 1 3 5 6 7 6 6 4 1 2 2 1 0 1 5 9 12 13 14 14 14 14 15 17 16
16 14 11 9 5 4 3 2 2 4 6 7 6 6 6 3 2 3 2 1 1 5 7 11 13 15 15 14 14 13 16 18 17
16 15 11 7 6 4 4 3 2 5 7 7 5 6 2 3 4 3 1 1 2 4 10 15 14 17 13 13 14 15 17 18 18
19 15 11 8 7 5 4 4 4 7 9 6 6 2 2 4 4 2 2 2 4 6 9 14 15 15 14 16 14 16 17 18 19
20 16 13 10 6 5 3 3 6 8 11 6 5 2 1 4 6 5 5 3 6 7 12 15 16 15 17 15 16 19 19 19 20
19 16 14 11 8 6 6 6 5 6 10 6 3 3 3 1 5 9 5 7 6 12 17 17 15 18 15 17 19 19 19 22 24
18 16 13 12 9 7 7 8 6 4 5 8 4 2 2 9 4 4 8 6 11 17 17 17 19 17 18 18 18 18 21 23 25
18 16 9 10 9 8 8 7 6 4 4 1 4 2 3 3 5 4 10 9 16 18 18 17 22 18 18 19 20 20 21 27 29
16 14 11 10 9 9 8 7 5 4 2 2 2 2 4 4 5 9 9 20 19 20 15 23 16 18 19 20 20 22 28 29 29

GFSFLT1_925_spd_051.txt.gz
Wind_Speed
7 7 7 7 6 5 4 2 1 3 5 5 5 5 5 5 3 5 6 5 8 7 8 8 9 8 8 9 9 10 10 10 11
8 8 8 8 8 7 6 5 4 4 5 4 4 2 4 5 5 5 5 4 9 8 9 9 9 9 10 12 12 11 12 14 12
8 8 8 8 7 6 5 5 4 3 3 1 2 3 4 6 4 6 6 7 10 10 10 11 12 11 11 12 13 13 13 13 13
8 7 6 6 5 4 4 3 2 2 2 1 3 5 6 4 5 6 5 9 10 11 11 9 12 12 12 10 13 14 15 15 16
6 4 5 5 4 3 3 2 2 2 1 2 4 5 5 6 6 5 5 8 10 9 10 10 10 10 11 10 11 14 11 11 15
5 7 4 4 3 3 3 2 2 2 3 5 5 6 4 5 5 5 8 8 9 9 8 8 9 10 11 11 12 13 12 12 12
8 6 4 3 2 1 1 2 2 3 1 3 5 4 5 5 5 6 8 7 7 7 7 8 9 11 11 11 11 12 12 12 13
7 5 3 2 1 2 2 2 1 2 3 3 4 5 5 5 4 7 9 6 6 5 7 8 10 11 11 10 12 12 12 12 13
8 7 5 5 3 3 2 1 1 1 3 4 5 5 5 4 4 7 7 3 4 6 8 9 10 11 11 11 12 12 12 12 12
10 7 6 5 4 3 3 2 0 2 4 4 5 5 5 5 4 6 5 4 6 7 8 9 10 11 11 12 12 12 12 12 13
10 9 7 7 6 6 5 3 1 2 4 5 6 6 6 5 3 2 2 3 2 6 7 9 10 11 12 13 13 13 12 13 15
12 10 9 6 6 4 3 2 2 2 5 6 6 6 6 5 3 2 2 3 4 4 5 7 9 11 14 14 14 13 13 15 16
13 14 10 8 6 5 4 2 1 3 5 6 6 5 6 4 2 3 2 3 2 7 10 11 13 14 14 13 13 14 14 16 17
12 12 13 9 6 5 4 3 2 3 5 7 5 5 3 3 3 3 2 3 2 3 7 13 13 13 13 13 14 13 14 15 16
16 13 13 10 7 5 4 4 3 3 6 6 5 3 2 4 4 4 4 5 4 6 8 11 12 13 12 15 13 13 16 16 16
15 15 15 13 9 5 3 4 4 4 8 5 3 4 3 4 6 6 6 6 6 7 8 12 14 12 15 13 13 17 16 17 19
18 18 15 10 10 6 5 3 2 4 8 4 4 1 4 3 5 7 8 7 7 9 12 14 14 15 17 15 17 16 17 20 21
21 17 16 12 8 7 6 5 4 3 4 7 4 2 2 6 4 6 7 7 9 12 15 15 16 18 17 17 17 17 19 21 24
21 18 16 14 10 7 7 4 5 3 2 1 4 3 3 2 4 2 6 10 10 16 17 18 17 21 17 17 18 19 20 24 28
22 19 14 11 11 8 7 5 5 3 2 3 3 3 4 6 5 6 6 17 15 18 17 16 21 16 17 18 19 19 24 28 29

GFSFLT1_925_spd_054.txt.gz
Wind_Speed
9 9 9 9 9 8 7 5 5 5 5 5 4 4 4 5 5 3 7 3 9 8 7 7 7 6 6 7 7 8 9 10 9
10 10 11 10 10 9 7 6 5 5 5 4 2 3 5 7 8 4 3 4 9 8 8 9 9 8 7 7 8 10 9 9 10
10 11 11 10 10 9 8 7 6 5 3 2 2 3 4 4 8 5 2 5 10 9 9 9 13 12 12 7 8 10 11 11 11
10 9 10 9 9 7 7 5 5 4 4 3 3 5 6 6 5 2 4 7 10 10 10 11 10 11 11 10 12 14 11 7 9
9 8 9 8 7 6 6 5 5 4 4 4 4 4 5 6 4 2 5 6 8 8 8 8 10 11 11 12 13 13 12 12 12
8 9 7 7 7 6 6 5 4 4 4 6 6 7 7 4 5 6 6 6 7 7 8 9 10 10 11 11 12 12 12 12 13
13 10 7 7 6 6 5 5 6 3 2 6 4 5 5 6 4 4 7 6 6 6 8 9 9 10 10 11 12 12 12 12 12
14 8 9 7 6 7 5 4 6 3 4 2 4 3 3 2 6 6 8 5 6 7 8 9 10 10 10 10 11 12 11 12 12
15 10 8 8 4 8 2 9 4 3 2 2 2 3 3 3 7 6 6 4 6 7 9 9 10 10 10 10 10 10 11 12 13
14 14 11 10 8 8 8 6 4 4 2 2 5 5 5 4 4 6 4 3 6 7 7 8 9 9 10 10 11 11 11 11 14
16 13 12 13 13 11 10 7 4 2 2 1 3 4 3 3 3 6 4 3 2 1 5 7 8 9 10 11 11 11 11 12 14
16 15 16 14 14 11 6 4 3 2 2 2 3 5 6 4 3 2 2 2 4 5 6 7 8 10 11 12 12 12 12 13 14
20 20 15 12 9 12 11 5 0 2 4 5 3 5 6 2 2 4 2 1 2 5 8 10 10 10 12 12 13 12 12 13 14
21 20 19 13 11 9 7 9 3 2 5 5 4 6 5 2 4 4 6 6 6 5 7 10 11 11 13 13 14 12 13 14 15
18 18 17 16 13 10 6 5 5 3 7 5 4 5 3 4 4 5 4 7 8 8 8 8 13 13 11 14 13 13 15 15 15
22 21 20 16 14 12 9 5 4 4 7 4 2 5 2 3 5 8 7 6 6 6 6 12 17 16 14 14 13 15 14 15 17
23 24 22 19 18 13 8 8 3 2 7 3 2 2 1 5 7 9 8 8 8 8 11 17 20 17 16 21 14 14 16 18 19
24 24 23 19 15 12 8 9 7 4 2 4 3 2 1 4 1 9 8 5 8 11 17 16 18 20 21 21 17 17 17 19 20
24 22 19 16 14 13 10 8 8 6 5 3 4 2 1 1 3 2 2 7 9 15 15 23 21 20 23 23 20 19 19 20 26
24 22 21 20 16 14 12 9 8 7 5 4 2 1 2 4 3 4 4 18 23 22 17 19 24 24 22 19 21 16 19 23 27

GFSFLT1_925_spd_057.txt.gz
Wind_Speed
11 11 11 11 11 11 9 9 9 7 5 5 7 7 6 5 6 6 4 5 7 6 6 6 5 4 3 4 4 5 5 7 8
12 12 12 12 12 11 9 8 8 7 6 6 6 7 7 8 7 5 3 5 7 5 5 6 7 4 4 5 5 6 6 7 8
13 13 13 12 12 11 10 9 8 6 5 5 6 6 6 7 6 4 4 5 7 9 6 6 8 8 9 13 13 8 4 7 8
14 13 13 12 12 10 10 9 8 7 6 6 6 7 8 4 3 2 2 5 6 6 6 7 8 10 11 11 12 12 13 14 11
13 13 12 11 10 10 9 9 8 8 7 6 5 6 5 1 5 4 5 5 6 5 6 8 8 10 10 10 11 11 11 11 11
12 12 11 10 9 9 9 9 8 7 8 9 7 5 4 6 2 2 4 4 5 6 7 8 9 9 9 10 10 11 10 11 11
11 11 9 9 9 9 9 9 7 3 6 6 4 4 4 3 0 1 3 5 5 7 7 8 9 8 9 9 10 10 9 10 10
14 12 11 10 10 10 10 9 8 7 7 5 5 2 0 2 2 2 3 4 6 7 8 9 9 8 8 9 9 9 9 10 10
19 13 12 12 12 11 10 10 8 6 4 2 3 3 2 4 4 2 3 6 8 8 7 9 9 9 9 9 9 9 9 9 10
20 15 14 13 12 13 14 15 11 8 5 2 0 2 1 4 5 2 0 3 7 7 7 8 8 9 10 10 10 10 10 10 11
20 19 17 16 14 17 14 12 10 8 6 3 1 2 0 1 5 3 1 1 2 3 5 7 8 8 10 11 11 11 11 11 12
22 22 20 20 17 16 15 11 8 6 5 3 1 2 4 3 5 3 4 2 1 1 3 7 9 8 11 11 12 12 11 12 12
22 24 23 20 17 15 14 11 8 5 2 2 1 2 3 2 5 5 4 3 2 2 4 7 9 9 11 11 12 12 11 13 13
27 25 23 19 17 15 13 11 8 4 0 1 2 3 3 3 6 6 5 3 3 4 5 8 8 9 11 11 12 11 12 13 13
27 26 23 20 19 16 13 10 7 3 1 1 2 4 2 4 7 7 7 6 4 5 5 8 11 14 14 10 12 12 13 13 13
27 26 24 22 20 17 14 12 7 3 1 4 1 3 2 3 6 7 8 5 5 5 7 10 14 16 17 15 15 12 12 14 16
29 27 26 24 22 18 15 12 9 4 2 4 4 2 2 5 8 10 9 6 5 6 7 12 14 18 20 19 17 13 12 15 17
28 26 26 24 21 18 14 13 8 6 5 6 3 2 2 3 2 7 8 4 3 3 8 12 16 16 18 20 22 19 14 17 18
30 28 26 23 19 17 13 11 8 6 7 6 3 1 1 2 3 0 5 3 4 12 18 15 14 19 20 19 20 18 17 18 21
29 27 24 22 18 16 14 12 10 7 8 6 3 1 1 2 2 3 5 11 19 18 11 22 13 15 15 17 15 12 15 20 24

GFSFLT1_925_spd_060.txt.gz
Wind_Speed
13 13 13 13 12 12 12 10 9 8 6 9 10 9 7 6 7 8 6 7 5 4 4 4 5 3 2 3 4 4 6 4 6
13 13 13 12 12 10 10 9 8 7 7 8 9 9 7 8 8 7 6 7 6 6 5 8 13 12 11 1 4 5 5 6 7
12 12 13 12 12 11 9 8 8 7 7 8 9 7 8 7 7 6 5 4 6 6 7 8 9 9 9 10 11 15 12 5 7
13 14 13 13 12 11 10 10 8 8 8 8 8 7 6 6 5 4 3 5 5 5 6 7 8 10 10 11 11 11 11 11 11
15 14 14 13 12 11 10 10 10 9 8 7 6 4 2 4 6 6 4 4 5 6 7 8 8 8 9 9 10 10 10 10 10
15 15 14 12 12 11 11 11 10 10 9 8 5 3 5 7 4 3 3 4 6 7 7 8 8 8 9 9 9 9 10 11 11
15 14 13 12 11 12 11 11 10 9 9 6 5 5 6 6 3 3 4 5 7 6 7 8 8 7 8 9 9 9 10 10 11
16 15 14 13 12 12 12 11 9 8 10 6 7 4 4 3 1 1 2 6 8 6 7 7 7 7 8 8 8 8 8 9 11
18 17 15 14 14 13 12 10 10 9 9 8 6 4 3 2 1 0 2 9 9 7 7 7 7 7 7 7 8 8 8 8 10
20 18 16 15 15 14 13 11 10 9 8 6 5 4 3 2 1 2 3 7 8 6 6 6 6 7 7 7 7 8 8 8 9
26 21 18 17 16 15 12 15 12 9 6 5 3 3 3 2 2 3 7 5 5 5 4 5 5 6 7 7 7 8 8 9 9
26 24 20 19 18 17 17 16 11 8 5 4 3 3 3 4 5 6 7 6 4 4 4 5 5 6 7 7 9 8 7 9 9
26 25 23 21 20 22 20 15 11 8 6 5 4 4 2 4 6 7 7 4 3 2 1 2 4 7 8 8 10 8 8 10 9
26 26 26 26 24 22 19 15 11 9 6 4 4 4 2 3 6 7 6 4 1 1 3 7 6 9 10 9 9 9 10 11 10
28 27 29 28 25 21 18 15 13 9 5 4 4 5 4 6 6 6 6 4 2 3 5 6 8 11 13 11 10 12 10 10 11
30 31 32 29 25 22 19 16 12 7 4 4 3 4 4 6 6 6 8 6 5 4 4 5 10 13 15 14 12 13 12 12 13
32 35 33 29 25 22 20 17 12 5 4 4 2 1 2 7 4 8 8 6 6 5 3 7 10 13 13 15 15 15 14 13 15
37 36 34 30 27 24 22 18 12 8 4 4 4 1 3 2 1 7 8 7 6 4 5 11 11 12 15 14 15 15 14 15 17
38 37 35 31 25 23 21 17 13 11 11 8 4 2 4 2 1 2 6 7 6 6 14 11 15 10 11 13 14 14 13 16 19
38 36 33 30 26 22 18 15 13 11 10 6 6 3 4 4 3 2 3 5 9 15 8 15 11 10 12 12 11 14 16 19 22

GFSFLT1_925_spd_063.txt.gz
Wind_Speed
12 12 12 14 13 13 12 10 9 7 7 10 9 7 5 5 8 8 9 8 5 6 6 5 3 4 4 3 4 5 4 4 5
13 14 14 13 12 11 10 8 7 6 8 9 7 6 6 9 9 8 9 10 11 10 8 9 7 8 16 7 6 3 3 4 6
13 13 13 12 11 10 9 8 8 8 8 8 8 7 7 10 8 7 6 6 9 9 9 9 11 12 12 12 14 13 14 9 10
13 13 12 12 11 10 9 9 8 8 9 8 7 7 6 7 5 6 5 5 7 7 8 10 11 10 7 10 11 12 13 12 11
14 15 14 12 11 11 10 9 9 9 8 7 6 5 4 5 5 6 5 6 7 8 8 9 9 6 9 10 11 11 11 11 12
15 15 14 13 12 11 10 10 9 8 7 6 5 4 6 7 5 4 5 6 8 9 8 9 8 8 9 10 10 10 10 11 11
15 15 14 12 11 11 10 9 8 7 7 5 4 5 6 5 3 5 6 7 8 8 8 8 8 7 8 9 8 9 9 10 11
16 15 14 12 12 11 11 10 8 7 6 3 4 4 4 3 2 4 5 7 8 6 7 7 7 7 8 8 8 8 8 9 10
18 17 15 14 13 13 11 10 7 6 8 5 4 3 2 1 1 2 5 9 8 7 6 7 7 7 7 7 8 8 8 8 9
18 17 16 15 14 14 12 11 10 8 8 6 4 2 2 1 1 3 6 7 8 7 6 6 6 7 7 7 7 8 8 8 9
22 19 18 17 16 15 13 12 11 10 8 6 5 3 2 1 2 4 6 5 5 6 5 5 6 6 6 6 7 7 7 8 8
24 22 20 18 17 17 15 14 13 10 8 6 5 4 3 3 4 6 6 5 4 4 5 5 5 6 6 6 7 7 6 8 8
26 25 24 20 19 18 17 18 15 11 8 7 6 5 4 4 6 8 7 4 4 3 1 2 4 6 6 7 7 7 8 9 8
28 26 25 23 21 21 22 20 15 12 9 7 6 6 5 4 8 9 9 7 5 2 0 3 4 6 7 7 8 9 9 9 9
31 29 26 25 24 24 24 20 15 12 9 7 6 7 6 6 8 9 9 8 6 5 2 2 4 6 8 8 8 9 10 10 11
32 31 29 29 29 29 25 20 15 11 9 7 4 5 6 7 8 10 9 8 8 4 4 5 7 8 11 10 9 10 11 12 12
35 34 33 33 33 30 27 24 18 9 11 5 3 1 3 7 8 10 11 11 8 7 5 5 8 10 12 12 13 12 11 13 13
38 38 36 36 37 35 30 26 21 13 10 10 4 2 4 3 6 10 12 10 10 8 6 7 10 12 11 10 10 11 12 13 15
40 39 38 39 38 35 30 25 21 17 12 7 8 5 3 3 1 4 6 9 10 9 7 9 11 8 8 8 10 12 13 15 18
38 37 36 39 36 29 27 24 21 17 15 10 7 5 4 4 3 3 3 9 11 11 10 13 7 7 7 11 12 15 18 21 22

GFSFLT1_925_spd_066.txt.gz
Wind_Speed
13 12 14 13 14 14 13 11 9 8 10 10 9 7 5 7 8 9 9 6 5 6 12 14 8 15 3 4 4 2 3 5 6
13 12 13 14 12 12 10 8 7 6 9 8 7 6 6 9 8 9 10 13 11 11 12 13 15 15 18 18 19 13 4 9 11
13 14 14 13 10 9 7 6 6 8 8 7 7 6 8 9 7 7 9 9 10 10 10 12 14 14 12 11 13 12 12 13 13
12 13 13 12 11 9 7 7 7 7 7 7 6 6 7 7 6 6 7 8 9 11 11 11 13 14 14 13 12 12 13 12 11
12 13 13 12 11 10 9 9 8 8 7 6 6 5 5 4 6 6 8 8 10 10 10 10 11 12 11 12 11 11 11 13 13
13 13 13 12 12 11 10 9 9 8 6 6 4 3 5 5 4 5 8 8 9 9 9 10 9 10 10 11 11 11 11 13 13
13 13 13 11 11 10 10 9 8 7 6 5 5 6 6 4 4 5 7 8 9 9 10 9 9 9 9 10 10 10 10 12 12
14 14 14 12 11 11 11 11 9 7 6 5 5 5 4 3 3 6 8 8 8 9 8 9 9 8 9 9 9 9 10 10 10
16 15 14 13 11 11 11 10 9 8 8 5 5 4 3 2 2 3 8 9 9 8 8 8 8 8 8 8 8 8 9 9 10
17 15 14 13 12 11 11 10 8 8 10 7 5 4 3 3 3 6 10 8 9 8 7 7 7 7 7 6 7 7 7 8 8
19 17 17 15 13 13 12 11 10 10 9 8 6 5 5 5 5 7 8 7 7 8 8 7 7 6 6 6 6 6 6 7 7
21 20 18 17 15 15 14 13 12 11 10 8 6 6 6 5 6 7 8 7 6 6 7 8 6 6 5 5 5 5 5 7 6
24 23 20 17 17 17 17 15 16 13 11 9 8 7 6 6 7 8 7 7 7 6 4 4 3 5 5 5 5 6 6 6 6
29 26 24 22 20 20 20 19 18 16 12 10 9 8 6 6 9 10 9 8 7 5 4 2 2 1 4 5 6 7 8 7 7
32 30 27 24 25 24 24 23 20 16 12 10 8 7 6 6 9 10 10 9 8 8 6 4 4 3 3 5 5 6 8 9 9
33 33 29 27 29 27 26 26 21 15 15 10 5 5 6 8 9 11 11 11 10 9 8 8 6 6 8 9 10 8 9 9 10
33 35 35 32 31 30 31 30 23 15 17 7 4 1 4 8 10 12 13 13 13 12 11 9 8 8 11 12 11 10 9 10 12
36 36 36 35 34 35 36 32 27 16 16 13 5 2 4 3 8 13 13 14 14 13 11 9 9 11 10 8 6 6 9 11 12
39 39 38 38 38 39 38 35 27 19 14 13 15 9 5 3 2 6 11 14 15 14 11 9 9 9 8 7 7 10 12 14 17
39 40 40 39 38 39 39 35 29 25 21 16 10 11 9 8 3 3 4 11 14 15 12 11 9 8 8 8 10 12 16 18 18

GFSFLT1_925_spd_069.txt.gz
Wind_Speed
11 9 15 14 12 11 15 12 11 11 11 10 9 9 10 10 11 12 11 6 5 10 14 10 14 15 9 11 3 4 5 8 10
13 11 14 16 15 14 11 10 9 10 10 9 7 7 9 10 11 11 11 11 12 12 13 14 15 14 14 16 19 14 14 16 18
13 11 15 13 12 11 10 9 8 10 9 8 7 7 10 9 9 9 8 9 10 11 12 13 12 12 13 14 13 12 13 13 14
13 14 13 11 11 10 9 9 9 9 9 8 7 8 8 7 8 8 7 8 10 10 11 10 11 12 13 13 13 12 13 12 10
13 14 13 11 10 9 9 9 9 9 8 8 7 7 7 6 7 7 6 9 9 8 9 9 10 12 11 11 12 12 12 13 12
12 13 13 11 10 9 10 10 10 9 8 7 6 6 7 7 6 7 7 9 8 8 8 9 10 10 11 11 11 11 12 12 12
13 14 14 13 11 10 10 9 9 8 7 7 7 7 7 6 5 7 8 9 8 8 8 8 9 9 10 10 10 10 10 10 10
14 15 13 12 12 11 10 10 9 8 7 7 7 7 6 5 5 8 9 9 8 7 8 8 8 8 9 9 9 9 9 9 9
16 17 16 14 13 13 13 11 10 8 7 6 7 6 5 4 5 8 10 10 8 7 7 7 7 7 7 7 8 8 9 8 8
18 17 17 15 14 14 13 12 11 9 10 8 7 5 5 5 5 7 12 9 8 7 6 6 6 6 6 6 6 6 7 7 7
20 18 17 17 15 15 14 14 12 11 11 10 8 6 6 6 6 9 8 7 5 6 6 6 5 5 6 5 5 5 5 6 6
21 20 19 18 17 16 16 15 14 13 12 10 8 7 7 7 8 9 9 7 7 7 6 6 5 5 4 4 4 4 4 4 5
23 22 21 19 19 18 18 17 16 15 13 11 9 8 8 8 9 10 10 10 10 9 7 5 4 4 4 3 3 4 5 5 5
27 26 23 22 21 21 21 20 19 18 16 12 10 10 9 9 11 12 12 11 11 10 9 8 5 3 1 2 3 4 5 6 7
30 29 27 26 24 23 23 22 21 18 16 12 10 10 10 10 12 13 13 13 12 11 10 8 6 5 5 5 5 5 6 7 8
33 32 30 31 29 28 25 25 22 17 18 11 7 7 9 10 12 14 14 14 14 13 12 10 8 7 8 8 9 10 7 7 8
33 36 37 36 32 30 31 30 25 19 21 8 4 3 5 11 13 15 16 16 16 15 14 12 10 9 9 9 9 6 6 7 9
36 37 38 38 36 35 35 34 32 24 24 17 6 2 4 2 10 16 17 17 17 16 15 14 12 10 9 8 8 7 8 9 12
39 39 39 38 39 38 38 36 37 32 23 21 19 11 6 3 2 8 16 17 18 17 16 15 12 10 9 8 6 8 10 11 14
43 42 42 41 40 41 39 38 40 37 28 26 16 19 14 12 5 3 6 14 16 18 17 15 13 11 10 8 7 10 11 15 17

GFSFLT1_925_spd_072.txt.gz
Wind_Speed
6 12 13 13 11 14 15 11 11 12 12 10 10 10 10 11 9 10 9 8 10 14 11 18 19 12 13 8 6 4 9 11 18
9 12 13 13 13 14 13 10 11 11 10 9 8 9 10 8 8 8 10 10 11 11 12 13 12 12 13 17 14 14 13 15 14
11 11 14 15 14 12 10 9 9 10 9 8 7 10 9 8 8 7 8 9 11 11 11 11 11 11 11 12 12 12 11 12 12
13 11 12 12 11 10 9 9 9 9 8 8 7 10 8 6 6 5 6 8 10 10 10 10 10 10 10 10 11 12 12 12 12
13 13 12 10 9 9 9 9 9 9 8 8 7 7 6 4 5 4 4 8 8 7 8 7 8 9 10 10 10 11 11 11 11
11 13 13 12 10 9 9 10 10 9 8 7 7 6 3 4 3 3 5 7 7 6 7 8 8 8 9 9 9 10 10 11 11
11 12 13 11 11 11 11 10 10 9 7 7 7 5 5 4 4 4 8 8 7 7 7 7 7 8 8 8 8 9 9 10 10
11 11 12 11 12 10 11 10 9 9 8 8 7 7 5 4 4 4 10 9 7 6 6 6 6 7 7 7 7 8 8 8 9
13 13 13 13 13 12 11 11 10 9 8 8 7 6 5 4 4 4 12 10 7 6 6 6 5 5 6 6 6 7 7 8 8
15 15 14 13 13 13 12 11 11 10 9 8 8 6 5 5 4 5 13 10 7 6 6 5 5 5 5 5 5 5 6 6 6
17 16 15 14 14 13 13 12 12 10 10 9 8 6 6 6 6 6 8 9 7 6 6 5 4 4 4 3 3 3 4 5 5
17 16 16 16 15 14 13 13 11 10 9 9 7 7 7 7 7 7 7 6 8 8 7 6 5 4 3 3 2 2 3 3 4
18 17 17 17 16 16 15 14 13 12 10 9 8 7 7 8 8 8 9 9 8 10 9 7 5 4 3 2 1 2 3 4 5
20 19 18 18 18 17 17 16 15 13 12 11 9 9 8 9 9 9 10 10 11 9 12 12 9 7 5 2 0 2 3 5 5
23 21 20 20 19 19 19 18 16 14 13 11 9 8 9 9 10 11 11 11 11 11 10 10 8 10 8 6 5 4 5 6 6
25 24 23 24 24 23 22 20 19 15 14 11 9 9 10 11 12 13 14 14 13 13 12 10 9 8 10 10 9 9 6 4 6
28 28 27 27 25 25 24 23 19 16 18 12 9 4 8 14 15 14 15 15 14 13 13 11 10 8 7 7 9 7 5 5 7
30 29 28 26 27 28 28 27 23 20 19 20 9 4 6 6 11 16 16 16 15 13 12 11 10 9 7 8 6 8 8 7 8
29 28 29 29 29 29 31 29 28 22 20 17 20 10 1 4 3 7 14 14 15 15 15 13 12 11 9 10 10 10 9 8 11
30 27 28 30 30 31 29 28 30 30 24 23 12 17 11 8 5 3 5 10 13 13 14 13 12 12 10 9 9 10 10 9 13

GFSFLT1_925_spd_075.txt.gz
Wind_Speed
4 10 10 10 10 14 12 11 11 11 10 10 10 11 12 11 12 11 12 12 15 13 18 18 14 15 18 11 8 14 16 18 17
9 14 10 10 12 13 11 10 10 10 9 8 8 10 9 8 10 12 13 11 14 13 13 13 14 14 15 15 14 12 12 13 14
10 11 12 12 12 11 10 9 9 8 7 7 8 9 9 7 8 8 10 11 13 12 12 13 12 13 13 13 13 13 13 13 13
11 11 13 12 11 9 8 7 8 8 7 7 8 9 8 6 7 7 12 11 11 11 11 11 11 11 12 12 13 13 14 14 14
11 10 11 10 9 8 7 7 8 8 7 7 8 7 7 5 5 5 8 7 9 7 9 9 10 10 10 11 12 12 12 12 13
10 11 11 10 9 8 7 7 8 8 8 7 6 6 2 4 4 4 6 7 7 8 8 8 9 9 10 10 10 11 11 11 11
11 13 13 12 10 9 9 9 8 8 5 5 7 3 3 3 3 4 6 7 7 7 7 7 8 8 9 8 9 9 10 10 11
12 11 13 11 12 9 10 9 9 8 7 6 6 5 5 4 4 5 8 7 6 7 7 7 7 8 8 8 8 9 9 9 9
13 11 13 13 13 12 12 10 10 9 8 7 7 6 4 4 4 5 10 8 6 7 7 7 7 7 6 7 7 8 8 9 9
13 13 14 14 13 13 13 12 11 10 9 8 7 6 5 4 4 6 12 9 6 6 6 6 6 6 6 5 6 6 7 7 7
15 14 14 14 14 13 13 13 12 11 10 10 9 8 6 6 6 6 9 10 8 7 7 7 6 6 5 5 4 4 4 5 5
15 15 16 15 14 14 13 13 12 12 11 11 10 9 8 7 8 8 8 9 10 8 8 8 7 6 5 4 4 3 2 3 4
18 17 17 16 16 16 16 15 14 14 12 12 11 10 9 9 9 9 9 10 10 13 11 11 9 7 6 5 3 2 1 2 3
19 19 18 17 18 18 18 17 16 16 14 13 11 10 10 10 10 11 12 12 12 10 15 13 11 10 8 6 4 2 1 3 4
22 20 19 19 20 19 19 18 17 17 15 13 12 11 11 11 13 13 13 13 15 14 13 17 14 13 11 9 7 4 3 4 4
23 23 22 23 24 22 21 19 19 18 16 13 11 11 12 13 15 15 16 16 16 15 15 11 12 12 14 11 10 8 6 2 3
26 26 25 25 23 23 24 23 20 19 19 15 12 4 10 17 18 17 17 16 16 16 16 15 14 10 6 9 9 9 9 5 4
28 28 26 25 26 26 27 26 26 21 22 24 9 4 5 10 15 18 17 16 16 16 16 16 14 14 10 11 10 10 10 7 6
28 28 28 27 27 28 29 29 29 25 22 20 26 16 2 3 3 10 16 16 17 17 16 16 17 14 12 12 12 11 9 7 7
26 27 29 30 29 28 29 28 31 30 24 26 12 20 16 11 3 3 6 13 15 15 19 15 13 14 12 12 12 12 10 8 9

GFSFLT1_925_spd_078.txt.gz
Wind_Speed
9 10 10 11 15 12 11 12 13 13 13 13 14 12 15 14 17 17 17 18 15 20 19 17 18 20 18 17 16 16 17 16 17
14 11 10 12 14 12 12 12 12 11 10 10 12 11 12 12 11 14 14 16 16 14 13 13 14 15 14 10 12 13 14 15 15
11 11 12 14 13 13 11 10 10 10 10 10 12 11 12 10 8 7 12 14 14 13 13 13 14 13 14 13 13 13 13 14 14
10 12 15 13 12 11 9 9 9 9 9 10 11 10 12 10 9 11 12 12 12 11 12 12 12 13 14 14 14 14 14 14 14
12 12 14 13 11 9 9 8 8 8 8 9 10 11 10 8 7 8 9 10 10 11 11 11 11 12 12 13 14 14 14 14 14
14 10 12 11 9 9 8 8 8 8 8 8 8 7 7 7 5 4 6 9 10 10 10 10 10 11 11 12 12 13 13 14 14
12 14 12 11 9 9 8 8 8 8 6 6 7 6 5 5 2 3 5 9 9 9 9 10 10 10 10 11 12 12 12 12 13
16 15 15 14 12 11 10 10 10 10 9 3 6 5 7 4 6 4 4 8 8 8 9 9 9 9 9 10 11 11 11 11 11
13 12 15 15 14 11 10 10 11 8 7 7 6 6 6 5 5 7 6 7 8 8 8 9 9 8 9 8 10 10 10 10 9
15 16 13 15 13 16 12 13 10 12 11 10 9 9 8 8 5 7 8 8 7 7 8 8 8 8 8 8 7 8 8 8 8
16 17 17 17 17 16 15 15 16 14 13 12 11 12 9 9 8 10 10 11 9 7 8 8 8 8 7 7 6 6 6 6 6
19 19 18 17 17 15 16 15 14 14 14 14 14 12 12 11 11 10 9 11 13 10 10 10 9 9 8 7 6 5 3 4 3
19 20 19 19 17 18 17 17 16 16 16 14 15 14 13 12 13 11 11 12 12 15 13 12 11 10 9 8 7 5 4 2 2
21 20 20 19 19 19 19 19 19 18 16 17 15 16 15 15 14 17 13 11 12 13 16 17 14 12 11 9 8 6 4 2 0
23 22 22 21 22 22 22 21 20 20 19 17 17 17 16 16 19 18 19 19 16 14 16 18 18 15 13 10 9 7 6 4 3
27 28 25 26 26 26 25 24 21 22 19 18 13 14 17 19 20 21 22 22 22 20 18 17 18 19 16 14 12 10 8 6 4
29 30 30 28 28 27 27 27 26 23 22 18 12 2 10 23 24 23 23 24 23 23 20 17 16 16 14 17 16 14 11 9 6
28 31 31 30 29 31 31 31 31 27 27 27 12 3 5 5 16 28 25 23 24 23 23 21 18 16 15 15 14 14 13 12 7
25 30 30 30 30 31 33 32 34 27 28 29 33 21 3 3 1 12 24 24 22 23 24 24 22 22 19 17 16 15 12 10 7
31 22 28 30 31 30 30 31 31 35 28 29 23 32 22 16 3 3 8 20 24 22 25 25 25 23 20 18 16 16 15 11 7

GFSFLT1_925_spd_081.txt.gz
Wind_Speed
11 12 13 17 14 14 15 15 15 16 17 16 17 16 18 16 14 19 18 19 19 17 16 17 19 16 14 14 15 15 15 14 20
13 13 15 17 13 14 14 14 14 14 15 14 14 14 14 15 14 15 16 16 14 13 12 13 13 13 13 12 12 13 13 14 12
14 13 16 16 15 13 12 12 12 12 13 14 13 13 11 13 9 10 14 13 13 12 12 12 13 13 14 14 14 14 14 14 14
12 15 17 16 15 12 11 11 11 12 13 14 13 13 13 11 11 12 12 12 11 11 11 11 11 12 13 13 13 13 14 14 14
13 18 16 14 13 11 10 10 11 11 12 13 13 12 13 10 10 10 10 10 11 11 10 11 11 11 12 12 13 13 13 13 13
14 17 16 15 12 11 10 10 11 11 12 13 14 10 5 9 8 8 7 10 10 10 9 10 10 10 11 11 12 13 13 13 13
16 14 14 13 12 11 10 10 11 12 11 12 12 11 10 10 6 6 6 10 10 9 9 9 10 9 10 10 11 11 11 12 12
16 17 15 14 13 13 12 12 13 12 11 10 12 10 9 10 7 6 5 9 10 10 9 10 9 9 10 9 9 10 10 11 11
17 17 17 16 16 14 13 13 13 14 11 8 9 7 12 11 9 7 6 8 10 10 10 10 9 9 9 9 9 9 9 9 10
18 17 15 18 17 16 14 14 16 14 11 13 10 11 12 10 10 9 9 9 9 10 10 10 9 9 9 9 9 8 8 7 8
15 17 15 15 15 16 14 14 15 14 12 14 13 15 13 12 11 11 12 11 11 10 11 11 10 10 9 8 8 8 8 6 5
15 19 20 14 14 15 15 15 16 18 17 16 14 15 14 14 14 13 15 13 13 12 13 13 12 12 11 10 8 7 6 5 5
18 19 20 18 19 18 17 20 18 20 18 18 18 17 16 15 17 15 16 15 15 15 16 16 15 14 12 11 10 8 7 6 5
22 23 23 22 22 22 22 21 21 20 20 19 17 17 18 17 19 19 19 18 17 16 17 19 18 17 15 14 12 11 8 6 5
26 25 25 25 25 25 25 25 24 22 22 19 19 18 20 20 20 21 22 21 20 19 19 22 22 20 16 15 14 13 11 9 8
28 28 26 27 27 28 27 27 25 24 23 19 17 19 21 24 24 24 24 25 23 22 22 22 23 22 21 17 16 14 12 10 8
29 30 30 29 29 28 29 29 28 26 25 15 5 2 9 24 27 27 28 26 26 27 25 24 24 23 24 23 20 16 13 11 9
32 32 32 32 31 32 33 33 32 27 26 29 12 2 5 3 15 32 31 31 29 30 29 27 26 24 23 23 22 21 16 13 10
25 33 34 34 36 34 35 34 35 32 29 28 35 23 4 4 2 8 26 29 29 29 28 27 25 24 23 22 18 15 15 14 9
29 24 24 28 34 34 33 34 34 37 30 32 26 32 22 12 3 3 4 22 23 24 26 26 25 24 23 20 16 14 12 10 8

GFSFLT1_925_spd_084.txt.gz
Wind_Speed
14 15 18 15 15 15 16 18 20 19 18 16 17 17 15 14 20 19 20 17 15 15 16 16 14 12 12 11 12 12 13 16 17
15 17 19 15 14 14 15 17 18 17 17 16 17 15 16 16 16 14 15 13 11 11 10 9 9 8 10 9 10 11 12 11 9
16 18 19 15 15 13 14 15 16 16 16 14 13 11 12 12 10 11 10 11 11 11 10 10 10 11 11 12 12 12 12 11 12
16 19 19 17 15 13 13 14 15 16 15 14 12 11 11 9 9 9 10 10 10 10 10 10 10 10 11 11 11 11 12 12 12
16 20 19 17 15 12 12 13 14 15 16 14 12 13 11 9 8 7 7 9 10 9 9 9 9 10 10 11 11 11 11 12 11
18 19 18 16 15 13 12 12 13 14 15 15 11 11 11 9 7 7 6 9 9 9 9 9 9 9 10 10 11 11 11 11 11
17 18 16 15 13 12 12 12 13 14 15 15 13 8 10 11 9 7 6 8 9 9 8 8 9 9 9 9 10 10 10 10 11
16 16 15 15 13 12 12 12 13 14 14 15 13 9 11 12 9 7 6 7 9 8 8 8 8 9 10 9 9 9 10 10 10
19 18 16 16 14 13 13 13 13 14 13 13 14 11 9 14 11 8 7 7 9 9 9 9 8 8 9 9 9 9 9 9 9
19 18 18 17 16 15 14 14 14 15 14 12 13 12 11 15 14 11 9 8 10 11 10 9 9 8 8 8 8 8 8 8 8
20 19 19 18 19 17 15 16 16 17 15 13 15 13 15 16 15 13 12 12 11 11 12 12 11 10 9 8 8 8 7 7 6
22 19 19 17 16 16 16 15 15 17 17 15 15 15 17 16 16 15 15 15 14 12 13 13 13 12 11 10 9 8 7 7 6
25 21 20 18 16 17 17 18 19 20 20 19 18 17 19 19 18 17 18 18 17 15 15 16 15 14 13 12 11 10 9 8 7
26 22 20 20 21 21 21 23 24 23 21 23 21 21 22 22 22 21 20 21 21 19 18 18 18 17 15 14 13 12 10 9 7
27 24 22 22 24 25 25 26 22 23 21 21 20 21 23 22 24 24 23 24 23 22 21 21 22 20 19 16 15 14 12 9 7
26 27 26 25 26 26 26 26 25 24 18 18 18 20 21 24 24 25 26 27 27 26 25 23 23 23 22 19 16 15 13 11 8
28 29 29 28 28 28 28 29 28 26 22 13 3 2 11 26 29 28 29 29 28 29 28 26 25 23 23 22 19 16 13 11 9
29 30 29 29 30 31 31 31 30 27 24 27 12 1 5 3 10 28 32 29 28 29 29 28 27 25 24 23 21 19 13 9 9
29 31 33 33 32 34 34 32 32 32 28 23 31 25 9 4 3 5 12 26 27 27 28 29 29 27 26 21 18 19 18 14 9
27 25 29 32 32 34 36 34 32 33 30 30 23 30 17 9 4 5 5 7 18 25 25 28 28 29 25 23 20 16 14 15 17

GFSFLT1_925_spd_087.txt.gz
Wind_Speed
15 17 14 13 14 15 17 18 17 16 15 15 13 12 13 18 18 21 16 13 14 15 14 13 10 10 10 10 11 12 13 14 15
15 18 15 13 14 16 17 18 17 16 14 15 15 16 17 16 15 14 12 9 8 9 8 5 4 5 7 8 9 9 9 8 7
17 18 15 13 13 15 16 16 16 14 13 12 12 13 12 10 9 8 8 9 9 8 8 7 7 8 9 9 10 10 10 10 10
18 18 15 14 12 13 15 15 15 14 12 10 9 10 8 8 8 7 7 8 7 8 8 7 7 7 8 9 9 9 10 10 10
17 17 16 14 12 11 13 14 14 13 11 8 9 10 7 6 5 4 5 5 6 6 6 6 7 6 7 7 8 9 10 10 10
16 18 16 14 12 10 11 12 12 13 11 9 8 8 7 6 3 3 3 4 6 5 5 5 6 6 6 7 7 8 9 9 10
17 17 15 14 12 10 9 10 12 12 12 10 9 6 7 7 4 3 2 3 5 5 4 4 4 5 6 6 6 7 7 8 8
16 17 16 14 12 11 10 10 12 12 12 10 8 6 7 8 6 4 3 2 5 4 4 4 4 4 5 6 6 5 6 7 7
18 18 16 15 13 12 11 11 12 13 12 12 11 9 7 10 9 8 6 5 4 4 4 4 4 4 4 4 5 6 6 6 5
19 18 17 16 15 14 13 13 13 13 13 12 12 11 11 13 13 11 9 7 7 6 6 6 6 6 4 4 4 4 5 5 4
20 19 19 17 16 15 14 14 13 14 14 13 12 13 13 12 15 14 12 11 10 9 8 8 8 7 6 5 4 3 3 3 3
21 19 19 18 16 16 16 15 15 16 16 16 14 15 16 16 18 17 15 14 13 12 10 10 10 9 8 7 6 4 3 3 2
21 22 20 17 17 16 17 17 17 17 17 17 16 16 17 17 18 18 18 17 16 15 13 12 12 12 11 10 8 7 5 4 3
23 24 21 18 18 17 18 17 19 18 18 18 19 19 19 19 20 20 20 20 19 18 17 15 16 15 13 12 11 9 7 6 4
25 25 23 21 20 21 20 21 20 21 21 20 20 21 21 22 24 24 23 23 22 21 20 19 19 19 18 15 13 12 10 7 5
28 26 26 24 24 24 24 24 24 24 20 16 19 21 22 23 26 26 26 26 25 24 23 22 21 20 21 19 15 13 12 9 7
27 27 29 28 27 26 26 26 26 24 21 10 3 3 8 20 27 28 28 28 26 26 26 25 24 23 22 21 20 14 12 10 7
30 29 29 29 29 29 28 27 28 26 21 23 10 1 4 3 5 11 23 29 26 25 25 25 27 26 25 23 21 21 18 12 8
29 29 31 31 30 31 31 29 30 28 27 21 27 24 9 3 3 3 6 10 18 26 28 25 25 27 27 27 26 26 24 26 25
26 29 30 31 30 31 31 31 29 28 28 26 18 24 28 15 9 9 12 12 13 16 22 24 25 25 26 27 25 23 24 22 19

GFSFLT1_925_spd_090.txt.gz
Wind_Speed
16 14 13 14 16 17 17 16 15 15 14 13 13 15 15 15 17 16 14 16 13 13 11 11 10 10 9 10 10 12 12 12 12
16 13 13 13 15 16 16 15 14 14 14 14 14 17 16 17 15 13 10 9 9 8 7 7 7 7 9 8 9 9 9 8 8
15 14 13 13 15 16 15 14 13 13 12 13 14 14 12 10 8 7 8 10 9 8 9 9 9 9 9 9 10 10 10 11 11
16 15 13 12 13 14 14 13 11 10 10 9 10 9 8 8 7 7 8 8 8 8 8 8 8 9 9 9 9 9 10 10 11
17 16 13 12 12 12 12 12 11 8 7 7 8 7 6 6 5 6 6 6 6 6 7 7 8 8 8 8 9 9 10 10 10
17 16 14 12 11 10 10 10 10 9 7 7 7 6 4 3 3 4 5 4 4 5 5 6 6 7 7 8 8 9 8 9 9
16 16 14 12 10 9 9 9 10 10 9 7 6 4 4 2 1 2 2 2 2 3 3 4 5 5 6 7 7 7 7 8 8
16 16 14 12 10 9 9 9 10 9 9 8 6 4 4 5 3 1 0 1 1 2 1 2 4 4 5 5 6 5 6 7 7
18 18 16 13 11 10 9 9 10 10 8 8 8 7 5 6 6 5 3 2 2 2 2 1 2 3 3 4 4 4 5 5 6
17 16 15 14 14 12 10 10 9 10 10 10 9 9 8 8 9 9 7 5 5 4 3 2 1 1 1 2 2 2 3 4 5
16 15 15 15 15 13 12 11 10 10 11 11 10 9 10 10 11 11 10 9 7 7 4 4 3 2 2 1 1 1 2 2 3
17 16 16 16 15 14 14 13 12 12 13 14 13 12 12 13 13 13 14 12 11 10 7 6 6 5 4 4 3 2 1 1 1
19 18 17 15 16 16 15 15 14 14 14 14 14 14 14 14 15 15 16 15 14 13 12 9 8 8 7 7 6 5 4 3 2
20 19 18 17 16 17 15 15 15 15 14 13 14 15 17 18 17 17 18 19 18 16 15 14 11 12 10 9 9 9 7 4 2
22 21 19 20 19 18 18 17 16 16 15 15 17 18 19 19 20 20 21 20 20 19 18 17 16 14 14 13 12 11 10 8 5
25 24 22 21 22 20 19 19 18 18 16 14 16 20 22 23 24 23 23 23 22 21 21 20 19 18 17 17 14 13 12 11 9
25 26 25 24 25 24 23 22 22 21 19 9 4 3 6 13 21 23 24 24 22 22 21 22 22 22 21 20 18 18 14 14 11
26 26 27 25 26 27 26 24 24 24 18 21 10 1 4 2 4 6 8 13 17 19 21 23 23 24 24 23 22 22 21 19 20
25 26 26 28 28 27 27 25 26 26 24 18 25 25 12 4 3 7 9 10 14 17 21 22 21 21 23 24 23 22 21 23 25
24 24 26 27 27 26 27 27 27 26 27 26 17 21 27 22 10 6 9 11 14 13 12 15 19 20 20 21 23 23 24 24 24

GFSFLT1_925_spd_093.txt.gz
Wind_Speed
14 15 17 18 20 19 18 17 16 17 16 15 16 15 17 18 16 16 16 14 13 13 13 13 12 10 11 11 10 11 12 13 13
14 13 15 18 18 17 16 16 16 15 14 15 17 18 18 16 13 11 11 10 9 9 10 11 12 12 11 12 12 13 13 12 12
14 14 15 17 17 17 15 14 15 15 16 16 16 14 12 10 9 10 10 9 10 11 12 11 11 11 11 11 12 12 13 13 13
15 14 14 16 16 16 15 13 13 12 13 13 12 10 9 10 10 10 9 9 9 10 10 10 10 11 11 11 12 12 13 13 13
15 14 13 14 15 15 14 12 11 10 10 10 9 8 8 9 9 9 8 8 8 9 9 9 10 11 11 11 12 12 12 13 13
15 14 13 13 13 13 12 11 10 9 8 8 8 6 6 6 7 8 7 7 7 7 8 8 9 10 10 11 11 11 11 11 11
15 13 12 12 12 12 11 10 9 8 8 8 6 4 3 3 4 5 6 6 5 5 6 6 8 8 9 9 10 10 10 10 10
15 14 13 12 11 11 10 9 8 8 8 6 5 3 2 2 1 2 3 4 3 3 4 4 6 7 7 8 8 9 9 9 9
18 18 16 14 12 10 9 8 8 8 8 7 6 4 2 3 2 1 0 1 1 2 1 3 4 5 6 7 7 7 8 8 8
18 18 17 15 12 10 9 8 7 8 8 8 8 7 5 4 4 5 4 3 2 1 1 3 3 4 5 5 6 6 6 6 6
18 18 17 15 13 11 9 7 7 7 8 9 9 8 7 7 7 6 7 6 5 4 4 4 4 4 4 4 5 5 5 5 5
17 17 17 15 13 12 10 9 9 9 9 10 10 10 9 9 9 9 9 9 9 7 6 7 6 5 5 5 5 5 4 4 4
18 17 16 14 13 12 11 11 11 11 11 12 12 12 11 11 10 11 11 12 12 11 10 8 8 8 7 7 6 6 5 3 3
18 19 17 15 14 13 13 12 12 12 12 11 10 12 13 13 14 14 12 13 14 15 13 12 12 11 10 9 9 10 10 8 4
19 19 17 16 16 15 15 14 12 13 11 11 12 14 16 17 16 16 16 16 16 17 17 16 15 14 14 13 12 11 12 12 9
22 21 20 19 19 18 16 15 15 14 13 9 9 15 17 19 19 18 18 18 18 18 19 19 18 18 17 17 15 14 13 15 13
23 22 22 22 21 21 20 18 17 16 14 5 1 3 3 8 13 15 18 17 17 18 18 18 19 20 20 19 18 18 15 15 16
23 23 24 24 24 24 23 22 21 15 14 18 7 2 4 2 4 7 8 10 14 16 16 18 19 19 20 19 20 19 20 17 17
24 24 24 23 25 26 25 23 24 22 15 15 21 22 9 3 3 8 12 14 13 13 13 14 16 17 17 17 20 20 20 20 18
23 23 24 23 25 25 25 25 25 26 22 22 14 19 24 22 10 6 10 12 14 13 10 10 10 12 15 15 16 17 18 16 17

GFSFLT1_925_spd_096.txt.gz
Wind_Speed
17 17 18 20 20 18 16 18 17 16 16 15 16 19 18 16 15 14 14 12 13 13 13 13 13 14 14 14 14 14 14 15 15
14 17 20 21 19 17 16 17 16 16 16 16 18 17 16 12 12 12 11 11 13 13 14 14 14 14 14 14 15 16 16 16 16
13 16 18 18 17 16 16 16 16 17 17 18 17 14 13 11 12 11 11 12 13 13 13 13 13 13 13 13 13 14 15 15 15
13 15 16 16 16 15 15 15 16 16 15 14 12 11 12 11 11 10 9 10 12 12 12 12 12 12 12 12 13 14 14 14 15
13 14 15 15 15 14 14 14 13 13 13 12 11 11 13 9 10 9 8 10 10 11 11 11 11 11 11 11 11 12 12 13 14
13 11 13 14 13 13 12 12 11 11 11 10 9 9 6 7 8 7 8 9 9 9 9 10 10 10 9 10 10 10 11 12 12
12 12 12 12 12 11 10 10 10 10 8 8 7 4 5 5 6 5 8 7 7 7 8 8 8 8 8 8 8 9 10 11 11
12 12 11 9 11 9 8 8 7 7 7 7 5 4 3 3 3 3 5 5 5 5 6 6 6 6 6 6 7 8 8 9 10
15 13 12 11 10 9 9 8 7 7 6 6 5 3 2 3 2 2 2 3 3 2 3 4 4 5 5 5 6 6 7 7 8
15 14 13 11 10 10 9 8 8 7 6 6 5 4 3 3 3 2 4 3 3 2 2 3 4 4 5 5 5 5 5 6 7
14 14 13 12 11 10 9 8 7 7 6 6 6 5 5 5 5 4 5 6 6 5 5 5 6 6 6 6 5 5 5 5 5
13 12 12 12 11 10 9 8 7 7 6 6 7 7 7 7 7 6 6 7 9 8 7 8 8 8 8 7 7 6 5 5 4
13 12 12 12 11 11 10 9 8 8 7 7 8 8 9 8 8 8 7 8 8 9 11 10 10 10 9 9 10 9 7 5 4
14 13 13 12 11 11 10 9 8 8 8 7 7 8 10 10 9 9 10 9 10 9 11 12 12 13 13 12 11 13 12 10 7
15 13 14 14 13 12 11 10 8 8 7 6 8 9 10 11 11 11 10 11 11 11 11 10 12 15 16 15 14 13 16 15 12
16 15 14 15 14 14 12 10 11 9 7 6 8 10 13 14 13 11 11 12 12 11 12 12 12 12 16 17 17 16 15 18 17
18 17 16 16 15 14 14 13 9 10 10 6 4 3 6 8 10 10 10 11 10 11 12 11 12 12 12 14 18 19 16 15 19
19 17 16 16 16 16 16 16 15 11 11 14 9 3 4 2 6 7 8 8 9 8 9 9 11 13 13 16 17 18 20 19 16
22 22 20 17 16 17 17 18 18 16 14 9 17 16 5 4 4 5 10 12 11 9 9 12 14 15 17 17 17 18 20 20 18
19 23 22 19 19 20 21 19 19 17 17 18 9 14 15 14 10 6 10 6 10 10 11 10 10 10 13 14 15 15 16 16 16

GFSFLT1_925_spd_099.txt.gz
Wind_Speed
16 17 18 20 19 16 17 17 16 16 17 19 22 21 17 16 14 15 14 15 15 16 16 15 16 16 16 16 16 17 17 17 17
16 18 21 19 18 16 16 17 16 17 16 20 18 16 16 14 14 14 14 15 15 15 15 15 16 16 16 16 16 17 17 17 17
17 19 20 17 17 15 15 15 17 17 19 18 16 15 13 13 13 14 13 14 14 14 14 15 15 15 15 16 16 16 16 17 17
16 18 17 15 15 16 15 17 17 16 16 14 13 14 15 12 12 12 11 12 12 13 13 13 14 14 15 15 15 16 16 15 16
15 17 16 14 14 15 14 14 14 14 13 12 14 15 13 11 11 11 11 11 11 11 11 12 12 13 13 14 14 14 13 14 15
12 13 15 14 13 13 12 12 11 11 10 10 11 9 7 8 9 9 10 9 9 10 10 10 10 11 11 12 12 12 12 12 13
12 12 13 12 11 10 10 10 11 10 6 7 7 5 6 7 8 8 9 8 7 8 8 8 8 9 10 10 10 10 10 11 11
13 11 10 10 10 8 8 9 6 5 6 5 4 4 4 5 6 5 7 6 5 6 7 6 6 7 8 8 8 9 9 9 9
13 12 12 10 10 9 8 7 6 6 5 5 4 3 3 4 4 2 3 5 3 3 4 4 5 5 5 6 6 7 8 7 7
16 14 12 11 10 10 9 7 7 7 6 6 6 5 4 4 3 3 2 3 3 2 1 1 3 3 4 4 5 5 6 6 6
15 14 13 12 11 10 9 8 8 7 7 8 7 6 6 5 4 3 4 5 6 5 5 4 4 4 4 4 4 4 4 4 5
13 13 13 13 12 10 9 8 8 7 7 8 8 7 7 6 6 5 5 5 7 8 8 8 7 6 6 5 5 5 4 2 2
13 12 12 12 11 11 10 9 9 9 9 8 8 8 8 8 7 7 7 7 7 8 11 10 10 10 9 8 9 7 4 4 3
13 12 12 12 11 11 10 9 9 9 9 9 8 8 9 9 9 9 9 9 10 9 10 11 13 14 13 11 12 13 11 8 7
14 12 12 12 11 11 10 10 9 9 8 8 8 9 10 10 11 11 10 10 11 11 11 11 13 17 16 15 14 14 17 15 12
14 12 13 14 13 12 11 10 11 9 8 7 9 11 13 14 13 12 11 11 12 12 12 13 12 12 13 18 18 16 15 17 17
14 14 13 14 14 13 13 13 11 12 11 7 6 2 9 12 13 12 12 12 12 11 11 11 11 10 10 12 15 19 16 15 15
17 16 15 14 14 14 15 15 16 12 14 16 7 2 3 5 10 11 10 9 10 10 8 9 9 10 11 14 15 15 18 19 16
17 18 17 14 17 16 14 16 18 18 13 12 15 17 7 2 2 9 9 9 9 8 7 9 11 12 14 15 18 16 16 19 18
15 16 20 21 19 17 17 16 18 17 18 15 10 15 15 14 8 5 6 9 9 11 10 9 7 7 9 8 11 14 15 16 16

GFSFLT1_925_spd_102.txt.gz
Wind_Speed
18 20 18 20 19 19 20 19 20 23 25 22 20 16 19 21 18 15 17 18 17 17 17 17 17 17 17 18 18 19 19 19 20
19 21 20 18 20 19 19 18 19 22 22 20 20 24 18 16 13 16 18 17 16 16 16 16 16 17 17 18 18 19 19 19 19
22 22 19 19 18 18 18 19 18 20 19 18 18 17 16 13 14 16 18 16 15 15 15 15 16 16 17 17 18 18 18 19 18
22 20 19 17 16 18 18 18 20 19 16 15 17 17 17 17 17 13 16 14 14 14 14 14 15 15 16 16 16 17 17 17 17
22 19 17 16 17 18 19 17 17 15 15 19 18 16 15 9 7 12 13 13 12 12 13 13 13 13 14 14 14 15 15 16 15
19 18 16 14 16 16 15 15 14 13 14 14 12 13 14 8 6 10 11 11 11 11 11 12 12 12 12 12 13 13 14 14 13
15 15 16 14 14 14 14 13 11 10 10 12 10 11 10 6 4 8 9 9 9 9 9 10 10 10 11 11 11 11 12 12 12
13 14 15 14 12 12 12 14 10 8 5 4 5 5 5 6 2 5 7 7 7 7 8 8 9 8 8 9 9 9 10 10 10
13 14 13 12 12 9 9 10 6 4 6 2 3 4 5 5 2 1 3 4 5 5 5 6 7 7 7 7 7 7 8 7 8
17 14 15 11 13 14 10 6 9 8 6 4 4 4 4 5 3 3 1 2 3 3 3 4 5 5 5 5 5 6 6 5 6
17 18 19 15 11 14 10 10 8 8 7 6 6 6 6 6 6 4 3 3 4 4 3 3 4 5 4 4 4 3 4 4 4
17 15 20 15 13 11 11 10 9 8 7 7 7 7 8 7 8 7 7 6 5 7 6 6 5 5 6 4 4 3 1 1 2
14 13 12 14 13 12 13 11 11 9 9 8 8 9 9 9 8 9 9 8 7 7 8 9 9 8 9 8 7 6 4 3 2
15 13 13 14 13 14 11 11 11 11 10 9 8 8 12 12 12 11 10 11 11 9 8 8 10 12 11 11 11 11 10 8 7
16 14 13 14 14 13 13 12 12 10 9 10 10 12 13 14 14 13 13 13 14 13 13 11 12 13 15 15 13 13 16 14 11
19 15 14 14 14 13 13 13 11 12 9 6 9 12 14 16 16 16 15 14 15 14 12 13 12 10 10 12 17 15 16 16 17
19 20 16 16 16 15 14 14 13 11 11 5 5 2 8 20 19 17 16 14 13 14 13 13 12 12 12 11 12 15 18 16 14
22 19 17 16 18 18 17 16 16 14 12 14 4 0 3 2 11 18 16 15 12 10 10 11 13 13 11 12 12 13 15 19 18
18 17 18 17 17 19 17 19 19 18 13 12 16 18 8 1 2 7 11 10 11 12 14 14 15 16 17 16 16 17 18 18 19
11 15 16 17 16 17 16 17 18 19 19 15 11 18 20 20 8 3 6 12 11 13 14 13 12 12 11 11 13 15 15 16 15

GFSFLT1_925_spd_105.txt.gz
Wind_Speed
22 20 21 23 23 22 22 26 26 24 23 19 18 20 16 15 14 17 18 19 17 17 18 18 18 18 18 18 18 20 20 20 20
22 22 23 23 23 21 21 27 24 24 23 25 22 17 12 13 17 19 19 18 17 17 17 18 18 18 18 18 18 18 19 19 19
23 22 23 22 23 21 21 24 23 22 21 20 18 14 14 16 17 18 18 17 17 16 17 17 17 17 17 18 17 18 18 19 18
21 23 19 21 21 21 19 23 22 20 19 21 19 15 13 16 15 17 17 15 16 15 16 16 16 16 16 16 16 16 17 17 17
22 20 17 20 22 20 20 22 20 18 19 19 18 15 11 11 13 14 15 14 14 14 14 15 15 15 15 15 15 15 15 16 16
23 20 18 20 21 20 19 19 17 20 19 15 13 11 10 9 11 12 12 12 12 12 13 13 13 13 14 13 13 13 14 14 14
23 20 17 19 19 18 17 17 16 16 15 13 13 12 8 7 8 9 9 10 10 10 11 12 12 12 12 12 12 12 12 13 13
20 21 18 18 17 16 16 16 16 14 12 10 6 10 6 4 5 6 6 7 8 8 9 10 10 10 10 10 10 10 10 11 11
16 17 17 17 16 15 16 15 11 8 8 6 7 8 5 5 2 2 3 4 5 5 6 7 8 9 9 9 8 8 9 9 9
13 14 15 15 16 15 15 13 10 8 8 6 9 8 5 4 2 1 1 1 3 4 4 5 6 6 6 6 6 7 7 7 7
16 18 16 15 16 13 12 10 12 10 10 8 8 8 8 6 5 5 4 3 4 5 5 5 5 5 5 5 5 5 5 5 6
17 18 17 15 15 15 12 11 12 10 11 9 10 9 9 9 10 8 7 7 6 6 7 7 7 6 8 7 6 4 3 3 3
17 19 20 18 18 16 16 14 13 11 11 11 9 9 11 10 12 11 10 9 9 9 9 10 9 8 9 8 8 3 3 4 3
18 15 17 17 16 16 17 15 13 12 10 10 9 10 12 12 12 12 13 12 12 11 10 10 11 11 10 11 10 11 10 8 6
20 20 16 18 16 17 14 14 13 12 12 10 11 12 13 13 15 15 15 13 14 14 13 12 13 12 13 14 13 13 15 14 11
20 21 19 20 21 19 18 15 14 13 9 8 9 12 14 15 15 16 15 16 16 17 16 14 13 11 11 12 15 15 15 15 18
21 22 20 20 20 19 18 17 16 14 14 7 4 2 4 16 19 17 18 17 16 17 17 14 12 12 13 12 14 15 16 18 16
25 23 20 21 21 21 19 18 18 17 15 17 5 1 3 3 4 16 18 17 18 16 16 14 14 13 15 16 15 16 17 19 19
17 21 22 19 23 23 21 19 20 19 17 14 19 14 4 2 2 3 9 13 13 12 15 15 14 13 13 13 14 16 17 19 20
15 19 21 21 22 20 20 20 21 22 19 16 9 18 17 13 6 3 4 8 9 12 15 15 13 13 14 14 15 17 18 20 19

GFSFLT1_925_spd_108.txt.gz
Wind_Speed
20 19 24 26 24 25 25 26 23 20 18 19 19 16 13 12 16 19 18 18 16 16 17 17 17 17 18 19 19 19 19 19 19
20 22 25 26 26 25 26 26 23 21 21 19 16 12 12 15 18 18 18 17 16 16 16 17 17 17 17 18 18 18 19 18 18
23 25 24 23 23 25 25 25 24 23 21 18 14 12 14 16 18 18 17 16 15 16 16 16 16 16 16 17 17 17 17 17 17
27 24 24 23 24 25 27 25 22 21 19 16 14 15 14 15 17 17 16 15 15 14 15 15 15 15 15 16 16 16 16 16 16
25 26 25 25 23 25 25 23 21 21 18 16 14 12 12 13 15 15 15 14 13 13 13 13 13 14 13 14 15 14 14 15 15
22 21 25 24 22 24 24 21 20 20 19 14 11 11 11 11 12 13 13 12 12 12 11 11 12 12 12 12 13 13 12 13 13
21 20 24 24 23 23 22 19 21 19 16 12 11 11 9 8 10 10 10 10 10 10 10 10 10 11 10 11 11 11 11 11 11
22 21 22 23 22 22 20 20 19 17 14 12 9 10 8 7 7 7 7 8 8 8 8 9 9 9 9 10 9 9 10 10 10
23 22 21 20 20 20 19 18 17 15 12 10 8 10 9 6 5 5 5 5 5 6 6 6 7 8 8 8 8 8 8 8 8
23 22 22 20 19 18 19 17 14 12 11 8 8 10 9 7 4 3 3 3 3 4 4 5 5 6 6 6 6 6 6 6 7
21 21 21 20 19 19 19 14 11 10 9 7 10 8 7 7 6 5 4 3 3 4 4 5 5 6 5 5 5 5 5 5 5
20 21 20 20 18 16 16 14 12 11 11 10 11 10 9 9 9 8 7 6 7 6 7 7 7 7 7 6 5 3 3 3 4
19 21 20 18 18 17 15 14 13 13 13 12 11 12 12 13 12 12 10 9 9 9 9 9 8 8 8 8 6 4 4 3 3
19 21 19 19 19 18 19 17 15 14 13 12 12 14 13 13 13 15 14 12 12 11 10 10 11 11 10 11 11 11 10 8 7
20 20 21 22 21 20 21 20 17 15 13 13 14 13 14 15 16 16 16 14 14 14 14 13 14 14 14 13 13 14 14 15 12
23 20 21 21 22 22 20 19 18 15 13 12 13 15 17 19 20 18 18 17 16 14 15 15 14 14 15 14 15 15 17 15 18
24 21 21 22 22 22 21 20 18 16 15 6 3 2 6 18 21 18 19 17 16 15 16 16 15 14 15 15 16 17 17 17 15
24 22 20 20 22 24 23 22 20 19 18 18 6 1 4 2 5 14 20 17 16 15 15 17 17 17 17 17 18 18 20 21 19
24 24 21 21 23 25 24 21 22 21 20 16 21 17 4 2 2 3 5 14 16 16 17 19 19 17 15 15 17 17 18 19 19
18 23 19 22 21 25 26 22 23 26 24 21 13 21 20 13 5 3 4 7 10 13 15 16 15 13 16 17 17 18 20 21 20

GFSFLT1_925_spd_111.txt.gz
Wind_Speed
25 25 25 23 25 25 23 20 21 21 20 17 15 13 12 14 17 18 17 17 15 15 16 17 18 17 18 17 18 19 19 19 19
20 23 24 25 27 25 21 20 20 18 17 16 13 13 13 15 18 19 18 16 15 15 15 16 16 16 17 17 17 18 17 18 18
21 26 27 28 27 25 21 20 21 20 17 14 14 14 14 15 17 17 17 15 14 14 15 15 15 15 15 15 16 16 16 16 17
24 27 29 29 28 26 24 22 21 19 16 16 16 15 14 15 16 16 16 14 14 14 14 14 14 14 14 14 14 14 15 16 15
26 26 26 30 28 27 24 21 19 17 17 17 15 14 14 14 15 15 14 12 12 13 13 13 12 13 12 12 13 13 13 14 14
26 26 25 28 28 27 23 20 19 16 15 14 13 13 12 12 13 13 12 11 11 11 11 11 11 11 10 11 11 11 12 12 12
24 24 24 24 26 25 22 20 17 15 13 11 11 11 10 10 10 10 10 10 10 10 9 10 9 9 9 9 9 9 10 11 11
24 25 24 23 25 23 20 20 19 14 10 9 10 8 8 8 8 7 7 8 7 7 8 8 8 8 7 7 7 8 8 9 9
26 26 25 25 26 24 21 21 17 13 11 8 9 8 7 6 5 5 4 4 4 5 6 6 6 6 6 6 6 6 6 7 7
27 26 25 24 24 22 21 20 18 13 9 7 8 11 8 7 5 4 4 3 3 3 3 4 4 5 5 4 4 4 5 5 5
27 26 24 22 20 19 18 18 15 11 9 7 8 11 11 9 7 6 5 5 4 3 4 5 5 5 4 4 3 4 4 3 4
25 25 24 22 20 18 18 15 12 11 10 9 8 10 10 11 10 8 8 7 6 5 6 7 7 6 5 5 4 3 2 2 2
24 24 24 22 20 19 17 15 13 12 11 10 11 12 11 11 12 12 12 11 9 9 8 7 7 7 7 6 5 3 3 3 3
22 22 22 22 21 19 18 16 14 14 13 12 13 12 13 14 14 15 15 14 13 11 11 10 10 9 9 8 9 9 9 7 6
23 22 22 21 21 21 20 18 16 15 14 12 13 14 15 16 17 16 16 16 16 15 14 14 13 14 12 11 11 12 12 14 14
26 24 23 23 23 22 20 20 20 17 14 12 13 15 16 19 19 18 18 18 18 17 16 17 16 17 15 14 12 11 14 14 14
27 25 25 27 26 24 24 23 21 18 14 6 2 2 6 18 24 22 22 19 17 17 16 17 18 18 16 16 13 13 16 16 15
28 28 25 26 26 25 24 23 22 19 18 18 7 0 4 4 5 13 20 18 18 17 17 17 18 18 16 16 14 17 17 18 19
28 29 26 24 25 23 22 21 22 21 21 17 23 18 4 1 3 2 4 13 19 17 17 17 17 18 17 16 16 16 16 16 18
30 25 22 20 22 22 24 23 21 21 23 24 14 25 22 17 6 3 4 6 10 14 15 15 16 18 18 17 16 15 18 18 18

GFSFLT1_925_spd_117.txt.gz
Wind_Speed
27 30 29 27 25 24 24 23 20 20 17 16 14 15 16 18 18 17 18 17 18 18 20 20 19 19 19 19 20 19 19 20 20
28 28 27 27 25 23 21 22 19 17 15 14 16 16 17 19 18 17 16 17 17 18 18 18 19 18 18 18 18 18 19 19 18
27 27 26 27 25 23 23 22 18 16 15 16 17 17 18 19 18 17 15 16 16 16 17 17 17 17 17 17 18 17 17 17 17
26 26 27 25 24 23 21 20 17 15 16 17 17 17 17 18 17 15 14 15 15 15 16 16 15 16 16 16 16 16 15 15 16
25 27 28 25 24 23 21 19 17 17 17 17 17 17 16 17 17 13 13 14 14 14 14 14 14 15 14 15 14 14 14 14 14
26 28 26 25 24 23 22 19 19 18 17 16 16 15 15 15 13 11 13 12 12 12 13 13 13 13 13 13 12 12 12 12 13
25 32 26 25 24 24 21 19 19 18 17 16 14 13 13 13 11 10 11 10 10 11 11 12 12 11 11 11 11 11 10 11 11
27 31 26 26 24 22 21 20 18 16 15 14 13 12 11 11 11 9 9 8 9 9 9 9 9 9 9 9 9 9 9 9 8
27 27 28 26 24 23 22 20 17 13 13 12 11 10 10 9 8 8 8 7 7 7 7 7 7 7 7 7 7 7 7 7 7
27 28 30 28 24 22 21 18 15 13 11 9 8 8 7 7 6 6 6 5 5 5 5 5 5 5 5 5 4 4 5 4 5
30 33 30 28 24 21 19 18 15 12 10 7 6 8 6 5 5 5 5 5 4 4 4 4 4 4 4 3 3 3 2 2 3
30 31 30 29 25 21 20 18 15 11 8 6 6 7 8 7 7 6 6 6 5 5 5 5 5 4 4 4 3 2 2 1 1
29 28 27 27 26 22 20 18 16 12 9 8 7 7 9 9 10 10 10 9 8 8 7 8 7 7 7 6 5 1 1 1 3
29 28 26 25 24 22 20 19 16 13 10 10 9 9 10 11 12 12 13 12 12 11 10 10 10 10 9 9 10 9 8 7 7
29 28 27 25 24 22 20 19 15 12 9 9 8 10 12 14 15 15 16 16 15 15 14 13 14 14 14 12 13 13 12 14 13
30 28 27 26 25 23 20 19 15 12 8 6 8 13 16 19 20 20 19 19 17 17 18 17 17 17 16 16 15 14 12 11 13
29 29 28 27 25 22 20 18 15 13 11 4 2 2 3 10 18 22 23 22 18 18 18 19 19 18 18 19 17 17 15 15 14
29 27 26 25 24 24 23 21 19 13 14 16 5 1 3 3 3 7 14 24 22 19 19 19 17 17 18 17 18 18 16 15 17
28 25 23 22 23 22 23 22 22 20 16 14 20 16 4 3 4 3 4 9 19 19 18 17 17 16 16 15 18 18 16 16 16
26 24 22 21 21 22 21 22 21 22 17 17 9 10 15 16 8 8 7 8 7 13 16 14 15 15 13 13 15 17 18 16 16

GFSFLT1_925_spd_120.txt.gz
Wind_Speed
28 28 29 27 26 26 24 22 20 18 16 15 15 15 17 16 16 16 16 16 16 16 18 18 18 18 18 18 18 19 19 19 19
31 29 29 26 27 25 22 20 18 16 14 15 17 18 20 15 16 15 16 15 16 16 17 17 17 17 17 18 18 18 18 18 18
32 29 28 25 25 24 21 19 17 15 15 16 18 18 18 16 16 15 15 15 15 15 16 16 16 16 16 16 16 16 16 16 16
32 28 27 26 23 24 21 19 16 15 17 17 18 18 18 14 15 14 13 14 14 14 14 14 14 14 14 14 15 15 15 15 15
31 29 28 27 24 23 21 18 16 16 17 18 17 17 18 13 13 12 13 13 12 12 13 13 13 12 13 13 13 13 13 13 13
28 25 28 26 24 22 20 17 18 18 18 17 17 13 11 11 11 11 13 11 11 11 11 11 11 11 11 11 11 11 11 11 11
24 25 26 26 24 22 19 19 20 17 14 15 12 10 11 10 10 10 11 10 9 10 9 9 9 9 9 9 9 9 9 9 9
24 25 24 23 23 19 18 20 14 13 13 11 10 11 10 9 9 9 10 8 8 8 8 8 8 8 8 8 7 7 7 7 7
25 26 25 23 22 20 18 15 14 13 12 11 11 9 9 9 8 7 9 8 7 7 7 6 6 6 6 6 5 5 5 5 5
27 25 25 24 22 21 18 16 15 13 12 11 10 9 8 7 7 6 7 7 6 6 5 5 5 5 5 4 3 3 3 3 3
27 30 24 22 21 20 18 17 14 13 11 9 8 8 7 7 6 6 5 6 6 5 5 6 5 5 5 4 3 2 1 1 0
24 32 23 22 20 19 17 16 13 12 9 8 7 8 7 7 6 6 6 6 7 7 7 7 7 6 6 5 4 2 1 0 1
26 24 22 22 19 18 16 15 13 10 8 7 6 6 7 8 8 7 7 8 8 9 10 10 9 8 9 7 6 2 2 2 3
24 25 23 22 19 16 16 14 12 10 8 7 6 7 8 8 9 10 11 11 11 10 12 12 12 12 10 11 11 11 8 7 7
24 22 22 22 19 17 15 15 12 10 9 7 8 8 9 10 12 12 13 13 14 14 13 13 15 15 15 14 14 14 14 15 14
23 21 21 20 19 17 16 15 14 10 8 6 7 10 12 13 12 12 13 14 15 15 16 16 14 13 17 17 17 15 15 13 13
23 21 20 19 18 18 17 15 12 10 10 6 4 3 6 7 10 11 12 14 14 15 16 17 16 14 14 15 17 17 17 16 15
21 19 19 18 17 17 16 15 13 11 10 11 5 2 2 4 3 3 6 9 13 15 13 15 15 15 14 14 17 17 16 17 15
21 19 18 17 16 15 16 16 14 9 8 5 10 8 6 4 5 4 5 6 7 11 16 16 12 11 10 13 15 15 14 16 15
21 19 17 16 17 16 15 18 15 10 8 8 5 5 10 12 8 7 13 8 10 8 11 12 11 11 12 12 14 13 12 15 15

GFSFLT1_925_spd_123.txt.gz
Wind_Speed
29 27 27 24 23 24 23 21 19 17 16 15 15 17 19 15 15 16 16 16 16 16 17 17 18 18 18 18 18 18 18 19 19
29 29 27 25 24 23 22 20 17 15 14 15 17 19 16 14 15 16 16 16 16 15 15 16 17 17 17 17 17 17 18 17 17
30 29 27 26 24 22 20 18 16 14 15 17 20 20 17 14 15 15 16 16 15 15 15 15 15 15 16 15 15 15 15 16 16
29 28 27 27 24 21 19 17 15 15 17 19 20 17 17 13 14 14 14 15 14 13 13 14 14 14 14 14 14 14 14 14 14
28 28 26 26 24 21 18 16 15 17 18 19 19 20 16 13 13 13 14 14 13 13 12 13 13 13 13 12 12 12 12 12 12
27 23 26 24 24 22 18 16 17 18 18 19 17 13 11 11 12 12 14 12 12 12 11 11 11 11 11 11 10 10 11 10 10
25 24 26 24 23 20 17 17 18 15 16 18 12 9 11 10 11 12 13 12 11 10 10 10 10 10 9 9 8 8 8 8 9
27 26 24 23 21 17 17 20 15 13 13 10 8 10 10 9 11 12 12 11 10 9 9 8 8 8 7 7 7 7 7 7 7
26 26 24 22 21 18 18 15 13 13 12 10 11 10 9 9 9 10 11 10 9 8 8 7 7 6 6 5 5 5 5 5 5
26 26 25 23 22 20 19 15 15 13 12 11 10 9 9 9 9 8 10 9 8 8 7 6 6 5 5 4 3 3 3 3 3
26 26 26 24 22 20 18 16 15 14 12 10 9 8 8 8 7 6 7 8 7 7 7 7 6 6 5 4 3 2 2 1 1
26 24 26 23 21 20 18 16 14 13 11 10 9 8 7 7 6 7 6 7 8 8 9 9 8 7 6 6 4 2 2 1 1
24 27 23 23 21 20 18 17 15 13 11 10 9 8 7 7 7 7 8 8 7 9 10 11 10 10 9 8 7 4 4 3 2
24 34 25 24 21 19 17 16 15 13 11 9 7 6 7 7 8 9 9 9 10 9 11 12 12 13 12 12 11 10 8 7 6
28 30 25 23 20 18 17 16 13 12 10 7 6 7 7 8 9 9 10 10 11 11 10 11 15 16 15 14 13 13 14 14 14
30 28 26 23 20 18 18 16 14 10 8 6 6 8 9 9 9 10 10 10 11 12 13 13 13 13 13 17 17 16 15 14 13
29 26 25 24 20 19 18 16 13 11 10 5 1 2 7 9 10 10 9 9 10 12 13 14 14 13 12 14 14 17 18 18 15
27 27 25 24 20 20 18 16 13 10 9 7 2 1 0 2 8 6 5 6 7 9 12 15 14 15 13 13 11 16 16 16 16
28 25 25 24 20 18 17 15 13 9 10 6 7 3 5 2 3 6 6 4 5 8 10 14 18 18 16 11 15 14 12 12 12
28 27 24 23 20 17 17 17 14 10 7 6 5 5 2 7 6 5 8 11 7 11 13 13 11 13 13 15 15 12 12 9 8

GFSFLT1_925_spd_126.txt.gz
Wind_Speed
22 26 23 22 24 23 22 21 20 19 19 20 21 21 21 17 18 18 18 20 19 18 19 19 19 19 19 19 19 19 18 19 19
26 25 25 24 25 23 21 19 18 17 17 20 22 18 20 18 18 17 19 18 18 17 17 18 18 18 18 18 18 16 17 17 17
28 26 25 25 24 23 20 18 16 15 18 23 20 19 21 19 19 18 18 16 17 16 17 16 16 16 16 16 16 16 16 15 15
28 27 26 25 24 23 21 18 15 17 21 23 21 19 19 15 14 19 17 15 15 15 15 15 15 14 14 14 14 13 13 14 14
26 27 26 25 24 21 21 17 16 19 22 22 20 20 16 19 19 16 16 15 14 14 14 13 13 13 13 13 12 12 12 12 12
27 27 27 25 23 21 18 17 18 20 22 23 20 18 16 12 10 16 15 13 13 13 13 12 12 11 11 11 11 10 10 10 11
29 26 27 26 23 19 18 18 20 21 24 18 15 15 13 11 10 17 15 13 11 11 11 11 10 10 10 9 9 9 9 9 9
29 26 26 26 23 21 19 21 20 21 22 15 15 15 12 11 10 15 13 11 11 10 10 9 9 8 8 8 7 7 7 6 7
32 31 29 27 24 21 21 23 18 14 14 11 11 12 12 9 7 13 13 11 9 9 8 8 7 7 6 5 5 5 4 4 5
33 32 29 26 22 23 25 18 17 17 12 13 13 13 12 7 5 9 10 10 9 8 7 6 6 5 4 4 3 3 3 2 2
31 31 27 28 24 23 22 17 19 17 16 14 12 12 12 9 6 4 8 8 7 7 6 6 5 4 4 3 2 1 1 1 1
32 32 30 29 27 23 19 20 18 16 15 14 13 12 11 11 7 4 4 4 6 6 6 6 6 5 5 5 3 2 2 1 1
35 33 33 30 30 26 22 22 20 17 16 15 13 12 12 9 9 7 5 4 3 5 7 8 8 8 7 7 7 5 4 3 3
37 30 33 29 29 26 24 22 20 17 15 14 12 10 9 9 8 8 8 7 6 6 7 7 9 11 11 10 10 10 9 8 8
38 33 28 31 29 27 25 23 18 18 14 13 10 9 8 8 9 9 9 9 11 11 12 9 10 11 14 14 13 13 15 14 15
38 39 29 30 30 28 25 25 18 17 14 11 8 7 9 9 10 9 10 8 11 11 10 12 13 12 11 12 14 16 16 16 14
32 40 31 31 30 26 24 25 19 14 17 9 6 2 5 11 11 10 8 6 8 10 11 12 14 15 15 12 11 11 13 17 17
31 38 32 32 32 28 26 24 20 16 16 8 4 2 2 3 8 7 8 6 6 7 12 13 16 16 12 11 11 11 14 16 17
36 36 34 33 30 29 28 24 23 19 17 13 7 6 5 2 2 6 6 5 5 9 13 13 13 13 14 15 15 13 15 13 12
33 36 32 32 29 29 29 26 23 18 17 12 11 8 6 4 3 2 4 3 9 11 15 16 11 11 15 16 17 15 11 9 8